[{"header": {"dx": 0.06612293990616946, "dy": 0.0552356325346848, "nx": 98, "ny": 59, "la1": 35.046912555036876, "la2": 31.78801023549047, "lo1": -121.43107172385933, "lo2": -114.95102361305473, "refTime": "2026041517", "parameterCategory": 1, "parameterNumber": 2}, "data": [7.11, 6.87, 7.48, 7.23, 7.98, 8.18, 8.68, 9.5, 10.12, 10.94, 11.16, 11.2, 13.32, 12.3, 11.45, 9.67, 0.0, -5.0, -6.45, -8.85, -10.79, -11.6, -10.79, -10.96, -10.84, -11.03, -10.04, -8.85, -6.7, -3.82, 0.0, 0.0, 3.04, 5.0, 3.82, 5.9, 4.2, 5.21, 6.64, 9.2, 9.33, 9.3, 9.67, 8.53, 9.96, 11.64, 13.01, 10.82, 11.16, 12.39, 13.57, 14.75, 14.75, 11.06, 9.39, 11.06, 13.42, 14.84, 14.42, 13.99, 13.7, 13.7, 13.19, 12.79, 12.87, 13.57, 13.75, 13.88, 14.84, 15.78, 15.78, 15.27, 15.55, 15.55, 15.53, 15.55, 14.75, 14.3, 14.6, 13.7, 11.9, 9.48, 11.6, 8.85, 12.07, 11.62, 12.07, 11.18, 11.18, 9.3, 7.51, 4.98, 4.38, 6.6, 5.81, 5.63, 5.11, 3.56, 6.89, 7.17, 6.95, 7.82, 7.59, 8.4, 7.93, 8.94, 9.5, 10.36, 9.76, 12.03, 11.92, 11.5, 12.04, 10.8, 2.6, 0.0, -6.7, -6.97, -9.48, -9.17, -11.6, -12.58, -10.41, -10.6, -11.03, -8.53, -3.82, -3.04, 0.0, 0.0, 3.04, 3.65, 2.99, 4.6, 2.82, 2.17, 2.28, 5.7, 8.85, 9.48, 8.1, 7.41, 9.27, 10.17, 11.03, 9.8, 11.53, 13.7, 14.75, 14.75, 12.16, 10.75, 9.49, 12.22, 13.99, 14.42, 14.61, 13.99, 14.55, 14.47, 14.03, 13.59, 13.59, 13.67, 13.75, 13.88, 14.84, 15.78, 16.22, 15.78, 15.99, 15.2, 15.2, 14.75, 14.75, 14.3, 14.6, 13.7, 11.9, 9.48, 11.6, 8.85, 12.07, 11.62, 12.07, 11.18, 11.18, 9.3, 7.51, 4.98, 4.38, 6.6, 5.81, 5.63, 5.11, 3.56, 6.89, 6.89, 6.95, 7.25, 7.58, 7.74, 8.58, 8.41, 8.66, 9.48, 9.17, 8.75, 11.26, 10.04, 9.67, 9.67, 8.22, 2.28, -2.37, -4.1, -6.97, -10.41, -10.41, -11.99, -13.15, -10.41, -10.18, -7.59, -3.53, 0.0, 0.0, 0.0, 0.0, 0.0, 3.15, 4.0, 3.15, 3.32, 1.93, 4.32, 6.7, 6.7, 7.18, 7.62, 9.06, 9.5, 9.17, 10.73, 13.99, 15.2, 14.42, 10.75, 12.16, 10.75, 11.52, 13.03, 14.42, 14.61, 14.18, 14.18, 14.6, 14.11, 13.67, 13.67, 13.67, 14.11, 14.6, 15.53, 15.55, 16.01, 16.01, 16.09, 15.65, 15.11, 14.4, 14.31, 15.08, 15.2, 13.75, 11.8, 10.12, 7.44, 9.17, 5.4, 0.0, 8.22, 10.0, 10.84, 11.18, 12.14, 10.12, 6.6, 7.59, 7.59, 6.4, 6.0, 5.8, 3.96, 6.64, 6.89, 7.17, 6.95, 7.58, 7.36, 8.14, 8.31, 8.78, 8.97, 8.85, 8.22, 10.19, 10.09, 8.22, 8.22, 8.22, 6.21, 0.0, -2.93, -5.0, -7.9, -9.3, -8.73, -9.42, -10.79, -7.27, -6.95, 0.0, 0.0, 0.0, 0.0, 0.0, 0.0, 0.0, 2.6, 2.49, 4.8, 3.61, 4.72, 6.44, 7.62, 7.43, 7.68, 8.24, 10.55, 12.39, 14.3, 13.99, 13.19, 12.27, 12.65, 11.8, 11.8, 12.65, 13.7, 13.99, 14.18, 14.18, 14.16, 14.6, 14.11, 14.11, 13.15, 13.15, 14.18, 15.18, 15.27, 17.35, 17.81, 16.54, 15.65, 15.34, 13.48, 12.5, 12.39, 13.56, 15.05, 14.9, 7.69, 3.25, 4.24, 4.1, 0.0, 0.0, 3.68, 8.53, 9.67, 11.18, 11.53, 10.75, 8.18, 6.2, 8.05, 6.67, 6.9, 6.67, 2.45, 6.64, 6.89, 7.17, 7.46, 7.25, 7.93, 7.49, 7.89, 8.05, 8.21, 8.07, 7.78, 9.16, 9.67, 7.9, 7.44, 7.44, 8.22, 5.98, 0.0, 0.0, -5.6, -8.22, -8.22, -7.59, -8.53, -6.94, -5.4, 0.0, 0.0, 2.1, 1.84, 1.91, 0.0, 0.0, 0.0, 3.69, 6.2, 4.18, 4.81, 6.21, 7.96, 9.48, 11.28, 12.03, 12.74, 14.16, 14.3, 14.47, 14.75, 14.31, 12.79, 12.79, 13.19, 13.7, 13.99, 14.18, 14.18, 14.31, 14.16, 14.16, 13.67, 13.15, 13.99, 14.18, 15.9, 16.48, 16.05, 17.89, 19.99, 19.55, 17.88, 18.14, 13.61, 8.68, 8.3, 10.82, 13.28, 13.15, 4.24, 0.0, 3.14, 0.0, 0.0, 0.0, 2.82, 8.53, 11.62, 6.0, 8.43, 7.93, 7.19, 5.6, 5.8, 7.78, 9.48, 7.78, 2.45, 6.64, 6.89, 6.89, 7.17, 7.25, 7.34, 7.69, 7.25, 8.05, 7.78, 7.64, 7.08, 9.08, 10.09, 9.3, 7.9, 7.15, 7.44, 6.98, 6.45, 11.62, 12.07, 0.0, 0.0, -5.6, -5.4, -3.82, -3.82, 0.0, 0.0, 2.39, 6.17, 7.27, 8.23, 8.53, 0.0, 0.0, 3.96, 1.52, 1.11, 2.72, 7.36, 10.82, 12.79, 13.15, 14.18, 14.31, 14.19, 14.3, 14.3, 13.86, 13.59, 13.59, 14.03, 14.55, 14.18, 14.18, 14.18, 14.31, 13.88, 13.72, 12.72, 13.99, 14.42, 15.47, 16.48, 16.91, 16.37, 16.86, 19.96, 21.06, 19.08, 16.39, 18.78, 0.0, 0.0, 6.0, 10.79, 9.17, 0.0, 0.0, 0.0, 0.0, 0.0, 0.0, 2.28, 8.53, -0.0, -0.0, 3.47, 3.14, 6.0, 6.0, 7.78, 9.17, 9.48, 5.8, -0.0, 6.43, 6.68, 6.68, 6.94, 7.23, 7.03, 7.11, 7.25, 7.38, 7.51, 7.24, 7.08, 8.75, 9.48, 10.8, 9.32, 8.59, 8.22, 7.9, 10.18, 7.59, 9.67, 9.3, 11.45, 12.52, 11.62, 0.0, 0.0, -3.96, -2.6, 0.0, 4.4, 8.43, 8.91, 10.84, 12.96, -0.0, -9.48, -10.4, -3.82, 0.0, 3.14, 7.93, 12.65, 15.18, 14.99, 15.87, 15.05, 13.72, 13.59, 14.3, 13.86, 14.3, 14.75, 14.3, 13.72, 14.16, 14.16, 14.19, 13.75, 12.72, 12.72, 14.42, 15.27, 15.9, 15.9, 16.33, 15.93, 15.65, 17.7, 20.28, 16.87, 12.01, 5.23, -0.0, -16.99, 0.0, 0.0, 6.0, 0.0, 0.0, 2.28, 0.0, 0.0, 0.0, 2.06, 13.86, -0.0, -0.0, -0.0, 2.63, 4.98, 8.05, 9.48, 11.99, 10.79, -0.0, -0.0, 6.43, 6.43, 6.68, 6.94, 7.23, 7.03, 7.11, 7.44, 7.54, 7.63, 6.62, 6.2, 7.56, 8.82, 10.04, 9.1, 8.94, 9.46, 8.93, 10.41, 10.41, 10.38, 11.21, 10.35, 9.58, 9.75, 9.2, 10.73, 0.0, -3.53, 0.0, 0.0, 6.2, 8.93, 11.18, 7.9, -3.25, -6.2, -11.2, -11.62, 0.0, 5.4, 8.85, 13.86, 13.19, 15.27, 15.34, 16.09, 14.47, 13.88, 12.27, 13.41, 13.86, 13.86, 13.86, 13.86, 13.86, 13.86, 13.41, 12.83, 11.95, 13.23, 14.99, 15.43, 15.87, 16.33, 16.86, 15.65, 14.75, 15.65, 17.64, 17.97, 14.94, 12.52, 8.43, 6.6, 14.3, 13.41, 9.17, 0.0, 0.0, 2.45, 1.98, 1.77, 1.55, 4.24, 13.41, -0.0, -0.0, -0.0, 2.54, 5.8, 9.48, 12.39, 11.99, 3.04, -0.0, -1.91, 6.43, 6.43, 6.68, 6.68, 6.94, 6.99, 6.8, 6.87, 6.94, 7.02, 6.62, 5.86, 7.28, 6.16, 6.5, 6.5, 7.9, 7.9, 8.73, 10.41, 11.18, 11.03, 9.67, 8.53, 8.53, 10.41, 6.64, 6.95, 10.28, 0.0, 0.0, 0.0, 10.73, 10.0, 10.0, 7.27, -0.0, -3.39, -5.2, -5.0, -0.0, 8.85, 8.85, 4.24, 4.52, 8.31, 13.39, 14.13, 15.78, 15.2, 14.75, 12.96, 13.41, 13.86, 13.86, 13.72, 13.72, 12.96, 12.52, 11.62, 12.52, 15.2, 15.2, 15.65, 16.09, 16.99, 17.43, 16.09, 14.75, 14.75, 16.09, 16.54, 16.54, 15.65, 13.99, 13.28, 13.44, 12.3, 13.41, 0.0, -4.52, 0.0, 5.31, 7.13, 6.94, 7.82, 12.58, 5.8, -0.0, -0.0, 3.14, 9.17, 11.6, 11.99, 9.48, 2.45, -0.0, -0.0, 6.43, 6.43, 6.46, 6.46, 6.72, 6.99, 6.99, 7.04, 6.87, 6.94, 7.28, 6.94, 6.81, 6.71, 5.64, 3.92, 5.0, 5.54, 6.2, 10.73, 7.59, 4.8, 5.2, 3.68, 3.53, 6.2, 5.46, 4.4, 7.59, 10.28, -0.0, -0.0, -0.0, 4.8, 8.22, 8.22, -0.0, -1.75, -0.0, -0.0, 2.37, 5.6, 2.93, 2.82, 5.2, 7.78, 10.73, 12.27, 13.99, 14.84, 14.55, 14.75, 14.11, 13.32, 13.32, 13.75, 13.32, 11.45, 10.58, 12.35, 14.75, 16.54, 17.43, 16.09, 16.09, 17.43, 17.74, 15.99, 13.75, 14.16, 14.6, 15.53, 15.97, 16.09, 15.65, 13.86, 13.41, 11.62, 12.07, 14.3, 0.0, -4.01, 4.01, 9.39, 10.82, 12.33, 13.86, 13.86, 11.99, 5.8, 9.17, 10.41, 11.2, 11.6, 7.78, 2.45, -0.0, -0.0, 6.43, 6.43, 6.46, 6.46, 6.46, 6.72, 6.99, 7.04, 7.34, 7.34, 7.67, 7.34, 8.1, 8.19, 8.85, 5.92, 3.32, 2.45, 0.0, -0.0, 4.52, -0.0, -0.0, -0.0, -0.0, -0.0, -0.0, -0.0, 3.11, 5.46, 2.49, 1.54, 1.93, 4.4, 6.95, 8.22, 6.45, 2.82, 2.28, 5.6, 5.8, 5.6, 2.82, 5.4, 5.2, 8.22, 11.21, 11.87, 12.79, 13.23, 14.75, 16.09, 15.93, 14.39, 13.39, 13.76, 12.92, 9.8, 8.18, 13.41, 17.43, 16.96, 16.54, 16.09, 15.61, 17.64, 18.65, 16.74, 13.97, 11.5, 12.74, 13.81, 15.07, 15.61, 15.08, 13.31, 11.51, 11.02, 14.11, 14.75, 6.8, -4.95, 0.0, 7.6, 13.8, 14.18, 15.11, 15.2, 14.3, 13.41, 12.52, 11.87, 11.2, 11.2, 9.66, 7.78, 2.54, 2.13, 6.43, 6.43, 6.22, 6.46, 6.46, 6.72, 6.72, 6.99, 7.29, 7.6, 7.6, 8.05, 8.46, 9.15, 9.14, 9.4, 8.93, 6.7, 0.0, 13.86, -0.0, -0.0, -0.0, -0.0, -4.24, -3.96, -5.4, -2.06, -0.0, 3.39, 2.71, 3.98, 3.98, 4.6, 4.6, 6.44, 5.52, 5.98, 6.97, 8.53, 8.85, 8.53, 5.2, -0.0, 4.8, 7.27, 10.04, 11.87, 12.96, 13.86, 14.3, 16.54, 18.78, 20.12, 18.65, 17.19, 14.22, 0.0, 0.0, -0.0, -0.0, 4.45, 14.51, 16.09, 15.78, 18.96, 21.49, 18.97, 14.22, 12.01, 11.33, 12.03, 13.19, 13.97, 11.92, 9.86, 10.4, 13.19, 14.38, 14.84, 15.61, 7.2, 0.0, 4.34, 11.27, 17.19, 16.32, 14.84, 14.66, 13.72, 12.35, 11.62, 11.28, 11.4, 12.27, 11.6, 7.78, 4.81, 5.96, 6.43, 6.22, 6.46, 6.46, 6.46, 6.72, 6.72, 7.44, 7.73, 7.73, 8.05, 8.46, 9.17, 9.71, 10.99, 11.77, 12.14, 13.01, 13.86, 14.3, 14.75, -0.0, -10.43, -6.4, -7.69, -7.44, -3.14, -0.0, -0.0, 2.19, 1.84, 2.1, 2.49, 2.49, 4.6, 5.7, 7.9, 7.9, 9.3, 8.22, 5.2, -0.0, -0.0, -0.0, 4.8, 8.22, 11.45, 12.3, 13.41, 12.52, 13.15, 12.79, 8.43, 7.6, 12.96, 20.12, 0.0, -15.61, -7.24, -0.0, 5.23, 10.46, 15.27, 18.33, 20.12, 22.35, 20.03, 9.13, 7.92, 11.5, 13.13, 8.94, 8.22, 6.95, 9.08, 10.43, 11.38, 11.38, 13.76, 14.39, 14.79, 11.38, 0.0, 4.12, 11.27, 15.36, 15.53, 15.07, 13.39, 13.32, 11.03, 11.18, 11.62, 12.52, 12.79, 10.37, 8.05, 5.77, 5.77, 6.22, 6.22, 6.46, 6.46, 6.46, 7.16, 7.16, 7.44, 8.15, 8.15, 8.15, 8.83, 9.78, 10.3, 11.16, 12.18, 12.45, 13.44, 13.57, 13.57, 14.75, 14.75, -10.12, -7.93, -6.2, -5.15, -4.24, -2.06, -0.0, -0.0, -0.0, 2.39, 3.11, 6.95, 6.95, 4.6, 4.6, 4.8, -0.0, -0.0, -0.0, -0.0, -0.0, -0.0, 2.28, 7.9, 8.22, 8.85, 10.41, 8.53, -0.0, -0.0, -0.0, 5.6, 11.06, 19.22, -21.46, -8.66, -1.72, 3.07, 4.01, 9.42, 11.7, 14.79, 16.19, 17.81, 15.17, 0.0, 0.0, -7.07, -8.2, -7.27, -7.9, 0.0, 0.0, 5.51, 10.19, 10.61, 12.01, 14.18, 14.53, 14.42, 0.0, 5.23, 8.0, 6.81, 10.89, 13.76, 12.42, 9.3, 10.0, 11.87, 12.39, 12.96, 12.79, 12.04, 5.77, 5.77, 5.96, 6.43, 6.68, 6.46, 6.9, 7.13, 7.16, 7.44, 7.85, 8.15, 8.53, 8.83, 9.17, 9.76, 10.73, 11.5, 11.81, 12.21, 12.25, 12.74, 12.79, 10.12, 14.3, -6.2, -3.36, -5.15, -4.24, -3.68, -0.0, -0.0, -0.0, 3.25, 4.6, 4.6, 7.59, -0.0, -0.0, -0.0, -4.6, -4.8, -4.4, -4.4, -4.4, -0.0, -0.0, -0.0, -0.0, 3.53, 3.68, -0.0, -0.0, -0.0, -0.0, 5.95, 8.22, 11.53, 10.17, -0.0, -1.83, -0.0, 3.36, 3.47, 3.58, 4.81, 9.17, 9.42, 14.39, 14.22, -14.54, -20.82, -16.06, -8.85, -10.73, -16.05, -17.43, -8.0, 0.0, 4.12, 10.46, 12.01, 13.42, 13.15, 12.96, 15.2, 0.0, 0.0, 3.9, 11.7, 13.26, 10.3, 8.22, 10.41, 12.89, 12.96, 12.96, 12.96, 5.77, 5.77, 5.96, 6.43, 6.43, 6.43, 7.13, 6.9, 7.16, 7.57, 7.85, 8.23, 8.53, 8.81, 9.17, 9.48, 9.8, 10.12, 11.28, 11.81, 11.77, 11.72, 12.39, 12.65, 14.75, 6.6, -0.0, -3.36, -4.98, -4.24, -3.68, -1.5, -0.0, -0.0, 2.49, 4.96, 9.2, 10.28, -10.73, -7.27, -6.64, -6.64, -9.2, -6.95, -4.4, -2.97, -3.11, -0.0, -0.0, -0.0, -0.0, -0.0, -0.0, -0.0, 2.97, 4.4, 7.27, 8.22, 8.18, 3.79, -0.0, -0.0, 3.68, 3.82, 3.82, 4.1, 9.17, 13.59, 15.61, 19.67, -15.17, -8.4, -8.4, -8.4, -4.81, -11.0, -18.65, -17.81, -8.2, 0.0, 0.0, 8.2, 12.01, 11.8, 11.84, 11.18, 11.99, 12.96, 5.8, 11.53, 12.52, 7.19, 8.3, 11.64, 11.72, 11.61, 12.35, 12.35, 5.77, 5.96, 5.96, 6.43, 6.43, 6.43, 6.88, 7.13, 6.9, 7.57, 7.57, 8.23, 8.81, 8.81, 9.17, 9.15, 9.17, 9.5, 10.19, 11.03, 11.58, 11.5, 11.72, 12.74, 14.11, 14.3, 14.75, -0.0, -6.6, -6.4, -5.28, -4.55, -2.42, -2.19, -0.0, -0.0, -0.0, -0.0, -7.27, -6.95, -6.95, -4.96, -7.27, -6.32, -5.46, -3.11, -3.25, -3.25, -3.25, -0.0, -0.0, -0.0, -0.0, -0.0, 4.8, 4.6, 4.6, 3.39, 3.82, 4.1, 3.96, 5.0, 4.8, 4.8, 7.59, 7.27, 9.67, 11.03, 13.15, -0.0, -15.49, -11.45, -9.2, -6.64, -0.0, -0.0, -8.6, -19.67, -13.91, -10.41, -4.34, 0.0, 6.31, 7.82, 10.12, 9.3, 12.07, 12.96, 12.72, 12.39, 8.85, 4.24, 4.93, 9.17, 9.96, 10.04, 11.2, 11.2, 5.77, 5.96, 5.96, 6.43, 6.43, 6.43, 6.88, 7.13, 7.13, 7.55, 7.57, 8.51, 8.51, 8.81, 8.83, 8.85, 9.15, 9.48, 9.84, 10.55, 11.04, 11.58, 11.99, 12.72, 13.31, 14.11, 14.42, 15.2, -10.75, -7.82, -6.6, -6.65, -6.08, -5.43, -4.8, -4.6, -4.4, -5.7, -6.95, -6.95, -5.46, -3.11, -5.46, -5.7, -3.25, -4.6, -4.8, -4.6, -4.6, -0.0, -0.0, -0.0, -0.0, -0.0, 4.6, 4.6, 4.6, 4.8, 5.0, 7.9, 5.4, 8.22, 7.59, 10.73, 9.6, 9.33, 9.11, 9.75, 10.8, -0.0, -14.22, -15.74, -11.8, -4.21, 2.87, 5.37, 6.64, -0.0, -19.67, -18.78, -12.33, 0.0, 0.0, 4.24, 6.44, 7.51, 9.17, 12.58, 13.01, 13.88, 10.12, 2.54, 3.19, 7.02, 9.17, 9.17, 8.85, 8.85, 5.77, 5.96, 5.96, 6.43, 6.43, 6.43, 6.88, 6.88, 7.13, 7.55, 7.83, 8.22, 8.51, 8.81, 8.53, 8.95, 8.2, 8.82, 8.87, 9.82, 11.83, 12.81, 11.97, 11.64, 11.62, 12.39, 0.0, 13.86, -6.0, -6.2, -7.13, -7.19, -7.28, -7.24, -6.86, -7.13, -6.83, -8.07, -8.73, -7.59, -6.95, -6.17, -6.2, -3.53, -3.68, -4.8, -4.8, -4.6, -4.6, -0.0, -0.0, -0.0, -0.0, -0.0, 4.6, 4.6, 7.27, 7.9, 8.53, 8.22, 8.22, 8.22, 11.18, 9.83, 9.83, 9.39, 9.39, 10.08, 10.52, 11.9, 12.64, 14.22, 16.44, 17.39, 12.01, 11.06, 11.38, 8.51, 3.33, -0.0, -15.19, -15.59, -3.9, 0.0, 2.63, 4.98, 6.0, 7.19, 11.16, 12.72, 14.3, 4.24, 1.98, 4.58, 8.66, 10.12, 8.31, 8.31, 5.77, 5.96, 5.96, 6.43, 6.43, 6.43, 6.88, 6.88, 7.13, 7.55, 7.55, 8.22, 8.51, 8.51, 8.81, 8.17, 7.82, 7.14, 7.93, 8.85, 11.21, 12.05, 11.68, 9.8, 9.17, 9.17, -12.96, -9.48, -7.69, -7.19, -5.6, -6.44, -6.7, -8.53, -8.82, -8.58, -8.93, -8.93, -9.38, -9.2, -9.32, -8.93, -6.98, -2.19, -0.0, -0.0, -4.6, -4.6, -4.6, -0.0, -0.0, -0.0, -0.0, -0.0, 3.11, 5.46, 5.0, 9.6, 10.73, 11.62, 11.18, 10.73, 10.73, 10.73, 7.27, 9.2, 9.75, 10.84, 11.45, 13.01, 15.84, 19.4, 24.07, 26.28, 20.91, 16.41, 15.87, 13.8, 5.23, -0.0, -3.07, -14.79, -15.2, -9.48, 0.0, 0.0, 0.0, 4.1, 7.19, 11.87, 13.41, 13.41, 0.0, 2.54, 7.13, 9.12, 6.6, 6.6, 5.77, 5.96, 5.96, 6.43, 6.43, 6.43, 6.88, 6.88, 7.1, 7.8, 7.8, 8.22, 8.22, 8.51, 8.81, 8.46, 8.1, 7.4, 6.7, 8.21, 9.27, 10.22, 10.02, 10.22, 10.43, 12.79, -9.8, -11.6, -8.53, -5.2, -6.45, -6.97, -8.22, -8.22, -8.93, -9.7, -10.0, -9.6, -9.6, -10.46, -10.27, -9.3, -7.9, -4.48, -0.0, -0.0, -0.0, -4.6, -4.6, -0.0, -0.0, -0.0, -0.0, -0.0, 3.39, 6.17, 7.9, 11.18, 11.62, 11.18, 11.18, 11.18, 10.73, 11.18, 7.27, 4.8, 7.59, 10.8, 11.12, 12.98, 14.99, 18.33, 23.19, 24.74, 19.29, 16.91, 17.88, 17.53, 9.92, 4.81, -0.0, -8.68, -14.31, -13.41, -12.39, -6.0, 0.0, 6.0, 7.44, 10.04, 12.14, 13.41, 14.3, 0.0, 3.36, 6.6, 3.58, 3.58, 5.77, 5.96, 5.96, 6.43, 6.43, 6.43, 6.88, 7.1, 7.1, 7.8, 7.8, 8.49, 8.22, 8.51, 8.51, 8.42, 8.05, 8.38, 8.31, 9.22, 9.97, 8.41, 6.98, 7.69, 10.12, 11.9, 14.3, 12.96, -8.53, -5.4, -5.4, -6.45, -8.22, -9.3, -9.08, -9.3, -10.68, -10.68, -10.27, -10.0, -9.3, -8.73, -6.98, -3.82, -0.0, -0.0, -0.0, -3.11, -3.25, -0.0, -0.0, -0.0, -0.0, -0.0, 3.39, 6.2, 9.3, 11.87, 8.22, 0.0, 7.27, 7.59, 11.18, 11.18, 7.9, 7.9, 8.22, 10.04, 10.37, 13.19, 14.53, 20.12, 19.71, 7.63, 6.95, 10.73, 16.12, 18.78, 15.99, 9.66, 5.81, -0.0, -11.38, -15.2, -14.3, -9.48, 0.0, 6.4, 10.43, 8.53, 9.66, 13.01, 14.3, 14.3, 10.12, 7.93, 4.66, 4.66, 5.77, 5.77, 5.77, 6.43, 6.43, 6.43, 6.88, 7.1, 7.1, 7.8, 7.8, 8.2, 8.49, 8.51, 8.51, 8.42, 8.31, 8.31, 9.02, 9.95, 10.01, 8.97, 6.44, 6.96, 7.89, 9.8, 9.8, 9.8, 12.96, -0.0, -8.53, -8.22, -9.67, -10.4, -9.3, -9.97, -9.97, -9.97, -9.08, -9.08, -9.08, -7.26, -6.45, -4.58, -1.64, -0.0, -0.0, -2.97, -2.28, -0.0, -0.0, -0.0, -0.0, -0.0, -0.0, 3.39, 6.71, 10.37, 12.96, 0.0, 0.0, 4.6, 11.62, 11.62, -0.0, 7.9, 10.4, 10.6, 9.67, 11.62, 12.39, -0.0, -26.37, -13.86, 0.0, 4.2, 10.41, 14.75, 16.99, 13.76, 8.31, 5.81, -0.0, -0.0, -10.43, -13.86, 13.86, 14.3, 15.2, -15.2, 5.8, 7.44, 13.57, 14.3, 14.3, 12.79, 10.12, 10.12, 6.0, 6.0, 6.0, 5.96, 6.43, 6.43, 6.88, 7.1, 7.1, 7.8, 7.8, 8.2, 8.49, 8.49, 8.11, 8.11, 8.69, 8.69, 9.02, 9.02, 9.73, 9.48, 8.32, 6.44, 6.96, 8.23, 8.59, 7.69, 13.41, 12.96, -8.85, -10.8, -11.03, -9.3, -10.0, -10.0, -8.94, -8.94, -8.22, -8.22, -7.26, -5.98, -5.2, -5.2, -3.19, -3.07, -3.04, -2.71, -0.0, -0.0, -0.0, -0.0, -0.0, -0.0, -0.0, 3.25, 4.6, 7.24, 11.6, 0.0, 0.0, 0.0, 11.18, 11.62, -0.0, 5.4, 8.53, 11.2, 10.6, 11.18, 10.96, -17.11, -25.93, -28.16, -16.54, -9.48, 0.0, 9.17, 14.75, 13.59, 11.53, 8.58, 5.48, 2.81, 3.58, -0.0, -0.0, -0.0, -4.81, -14.39, -6.2, 0.0, 6.2, 12.39, 12.79, 12.79, 9.8, 9.8, 6.0, 6.0, 6.0, 6.0, 6.43, 6.43, 6.88, 6.88, 7.1, 7.53, 7.8, 8.2, 8.49, 8.49, 8.38, 8.38, 8.38, 8.42, 8.42, 8.74, 9.08, 9.8, 9.48, 7.43, 6.67, 6.67, 8.05, 8.38, 9.48, 13.41, -12.96, -12.96, -12.52, -11.03, -10.6, -8.93, -9.3, -7.9, -6.71, -6.97, -4.32, -3.68, -3.53, -3.53, -3.53, -3.39, -4.32, -2.1, -1.62, -0.0, -0.0, -0.0, -0.0, -0.0, -0.0, -0.0, 3.25, 4.4, 6.45, 8.85, 11.18, -6.64, -9.83, -0.0, -0.0, 3.82, 6.7, 10.04, 11.71, 11.62, 13.41, 13.99, -21.9, -27.34, -27.34, -19.95, -15.99, 15.65, 14.3, 13.41, 12.39, 9.8, 6.0, 4.98, 5.48, 3.58, -0.0, -4.66, -4.81, -11.06, -16.99, -8.18, 0.0, 6.6, 9.48, 9.8, 9.8, 9.8, 6.0, 6.0, 6.0, 6.0, 6.68, 6.68, 6.43, 6.88, 6.88, 7.36, 7.8, 8.2, 8.2, 8.49, 8.08, 8.11, 8.11, 8.11, 8.42, 8.31, 9.08, 9.02, 9.36, 8.97, 7.69, 6.67, 7.19, 7.54, 7.78, 9.17, 12.96, -12.96, -12.52, -12.07, -10.4, -10.0, -7.59, -5.95, -5.0, -5.0, -2.19, -1.91, -1.84, -2.19, -2.1, -2.1, -2.82, -2.49, -1.93, -1.93, -0.0, -0.0, -0.0, -0.0, 2.71, -0.0, -0.0, 3.11, 5.7, 6.45, 10.8, 12.07, 9.39, -0.0, -0.0, 3.82, 6.94, 10.41, 12.96, 12.52, 11.84, 14.3, -12.01, -24.14, -26.22, -25.36, -21.48, -17.88, 11.62, 11.62, 13.41, 6.2, 4.81, 6.2, 8.58, 7.0, -0.0, -0.0, -0.0, -0.0, -0.0, -9.17, -3.69, 0.0, 3.36, 7.93, 9.8, 9.8, 6.0, 6.0, 6.0, 6.46, 6.46, 6.68, 7.13, 7.13, 7.13, 7.36, 7.8, 7.8, 8.2, 8.49, 8.49, 7.83, 8.11, 8.11, 8.42, 7.99, 8.31, 8.66, 9.1, 8.59, 8.38, 7.43, 7.19, 7.78, 8.1, 9.17, 5.8, 5.6, 0.0, 12.07, 12.07, -0.0, -0.0, -0.0, -0.0, -0.0, -0.0, -0.0, 1.91, -0.0, -0.0, -0.0, -0.0, -2.49, -2.39, -2.39, -2.1, -2.19, -0.0, 1.69, 2.19, 2.1, -0.0, -0.0, 4.2, 7.27, 10.04, 9.3, 7.9, -0.0, -0.0, 3.68, 8.53, 12.58, 12.96, 12.96, 12.71, 13.41, 14.31, -0.0, -19.08, -26.74, -24.59, -19.29, -9.83, -9.83, -8.22, -4.1, -0.0, 4.1, 3.36, 5.48, 5.81, 8.68, 6.8, -0.0, -0.0, -0.0, -9.67, 0.0, 0.0, 3.47, 3.47, 3.47, 5.8, 5.8, 6.0, 6.46, 6.46, 6.46, 7.13, 7.13, 7.13, 7.13, 7.8, 7.8, 8.2, 8.49, 8.49, 7.83, 7.83, 7.85, 7.73, 7.73, 8.05, 8.38, 8.73, 8.66, 9.02, 8.38, 7.96, 7.96, 8.15, 8.01, 8.85, 8.53, 8.53, 8.53, 12.07, 11.62, 8.22, 5.0, 3.53, 2.6, 2.19, 1.91, 3.53, 3.25, 3.65, -0.0, -7.27, -3.25, -2.39, -2.49, -2.19, -0.0, -0.0, -0.0, 1.76, 2.28, -0.0, -0.0, 4.6, 7.27, 10.0, 10.0, 7.9, 2.93, 2.82, 5.6, 13.01, 12.52, 12.07, 12.96, 14.3, 14.3, 13.41, 12.39, 3.69, -3.86, -18.95, -19.22, -13.59, -10.28, -10.6, -6.97, -3.25, -0.0, 3.96, 6.2, 9.22, 11.06, 7.0, -0.0, -0.0, -0.0, -16.54, -9.42, 0.0, 0.0, 2.98, 2.98, 6.04, 6.04, 6.04, 6.72, 6.72, 6.9, 6.9, 7.13, 7.13, 7.13, 7.55, 7.8, 8.49, 8.49, 8.49, 7.83, 7.85, 7.44, 7.73, 7.73, 8.05, 8.1, 8.1, 8.73, 9.06, 8.3, 8.67, 8.61, 8.24, 8.85, 8.53, 8.53, 8.53, 10.04, 11.62, 11.62, 10.4, 7.9, 6.2, 4.8, 4.15, 4.15, 3.53, 4.48, 4.48, 4.6, -0.0, -6.95, -2.49, -2.49, -0.0, -0.0, -0.0, -0.0, -0.0, 1.76, 2.93, 2.82, 4.8, 6.71, 7.9, 7.9, 5.4, 3.04, 5.4, 10.37, 12.87, 12.27, 10.79, 10.79, 13.67, 14.55, 13.67, 13.41, 7.93, -0.0, -0.0, -13.59, -18.78, -16.48, -12.07, -7.27, -3.04, -0.0, 3.14, 3.25, 6.0, 6.6, 2.98, 2.5, 2.43, 2.5, -0.0, -14.39, -4.12, 0.0, 0.0, 0.0, 6.04, 6.04, 6.04, 6.5, 6.72, 7.16, 7.16, 7.16, 7.13, 7.13, 7.55, 7.83, 8.49, 8.49, 8.49, 7.83, 7.85, 7.73, 7.48, 7.48, 7.78, 7.78, 8.1, 8.44, 8.79, 8.76, 8.72, 8.67, 8.85, 9.42, 9.5, 10.04, 10.35, 10.79, 11.28, 11.62, 11.28, 10.0, 7.9, 6.44, 6.44, 5.52, 5.75, 4.8, 5.0, 6.97, 3.53, -0.0, -0.0, 4.15, 4.15, 3.82, 2.02, 2.02, 2.6, 2.6, 1.93, 2.19, 4.32, 5.0, 4.8, 5.0, 2.93, 2.82, 8.53, 10.01, 12.45, 14.3, 6.71, 6.95, 8.38, 12.45, 15.78, 16.99, 16.54, -0.0, -0.0, -0.0, -12.96, -20.12, -21.01, -11.87, -8.22, -0.0, -0.0, -0.0, -0.0, 3.47, 2.89, 2.89, 2.89, 5.81, 5.81, -15.65, -8.93, -3.42, 0.0, 0.0, 5.83, 5.83, 6.5, 6.5, 6.5, 7.16, 7.16, 7.16, 7.16, 7.57, 7.83, 7.83, 8.22, 8.22, 8.51, 7.85, 7.87, 7.48, 7.48, 7.78, 7.78, 8.1, 8.1, 8.44, 8.79, 8.76, 9.17, 8.85, 9.36, 9.88, 10.01, 10.19, 10.48, 11.45, 11.46, 11.18, 11.18, 10.38, 9.96, 9.2, 7.59, 7.59, 6.7, 5.52, 7.59, 7.24, 7.24, 5.95, 5.7, 6.98, 6.7, 7.27, 7.27, 4.8, 4.8, 4.8, 4.6, 2.82, 2.1, 2.71, 5.0, 5.2, 2.93, 8.22, 10.04, 9.67, 10.4, 12.96, 10.8, 5.46, 5.1, 10.0, 15.65, 22.8, -14.86, -16.96, -4.01, -0.0, -0.0, -13.91, -21.9, -18.24, -12.96, -9.48, -0.0, -0.0, 2.81, 3.47, 4.52, -0.0, 3.58, 5.48, 7.82, 7.0, -11.06, -3.9, 0.0, 0.0, 6.08, 6.08, 6.53, 6.53, 7.19, 7.19, 6.92, 7.16, 7.57, 7.57, 7.57, 7.57, 7.83, 8.23, 8.23, 7.87, 7.87, 7.78, 7.51, 7.82, 7.82, 8.1, 8.44, 8.82, 8.79, 9.17, 8.85, 8.53, 9.76, 8.69, 9.88, 10.01, 11.2, 11.09, 11.95, 11.62, 11.18, 11.02, 10.18, 9.6, 9.2, 8.38, 8.38, 8.38, 9.2, 9.58, 9.3, 8.24, 8.24, 8.73, 8.38, 8.03, 7.59, 8.58, 8.23, 6.17, 7.9, 6.2, 3.39, 2.49, 5.4, 6.45, 8.22, 9.3, 10.4, 10.84, 9.97, 11.03, 12.52, 12.07, 9.75, 10.28, 13.86, 18.78, -29.06, -19.29, -9.48, -3.53, -0.0, -5.65, -17.39, -16.96, -11.06, -10.12, -14.75, -0.0, 4.95, 8.18, 6.4, -0.0, -0.0, 3.47, 5.48, 7.82, 15.2, -4.95, -3.9, -3.9, 5.86, 5.86, 6.53, 6.53, 6.94, 7.19, 7.19, 7.59, 7.59, 7.85, 7.85, 7.85, 7.85, 8.23, 8.24, 7.89, 7.89, 7.9, 7.82, 8.15, 8.52, 8.52, 8.52, 8.85, 8.85, 9.2, 9.23, 9.62, 9.34, 10.37, 8.75, 9.66, 10.24, 11.3, 11.71, 11.62, 11.62, 11.06, 10.75, 10.32, 9.45, 9.6, 9.6, 9.6, 10.0, 9.6, 9.6, 9.2, 9.6, 9.6, 9.2, 8.82, 9.58, 9.2, 8.82, 9.2, 9.2, 8.58, 7.27, 5.95, 7.59, 5.95, 8.22, 8.93, 9.3, 10.84, 10.41, 10.08, 11.28, 12.58, 11.21, 10.38, 11.62, 16.09, -28.16, -23.23, -14.31, -8.22, -6.0, -0.0, -11.38, -16.99, -7.4, -7.4, -11.7, -16.54, -0.0, 14.42, 12.79, -0.0, -0.0, -0.0, 3.36, 5.31, 6.4, -10.75, -8.43, -8.43, 6.29, 6.29, 6.29, 6.53, 6.94, 6.94, 7.59, 7.59, 7.59, 7.59, 7.59, 7.59, 7.87, 8.24, 8.24, 7.61, 7.9, 8.21, 8.21, 8.52, 8.52, 8.85, 8.85, 8.85, 9.2, 9.2, 9.56, 9.92, 10.01, 10.43, 9.97, 10.16, 10.4, 11.3, 11.71, 11.53, 11.62, 11.62, 11.09, 10.41, 10.41, 9.45, 9.86, 9.86, 9.86, 9.45, 9.89, 9.89, 10.32, 10.18, 10.18, 10.6, 10.18, 9.75, 9.55, 9.55, 9.55, 9.13, 9.55, 9.6, 8.85, 7.9, 7.9, 10.0, 8.55, 10.18, 10.18, 10.41, 11.03, 12.14, 10.73, 12.14, 12.52, 14.42, 23.69, -24.6, -18.78, -15.65, -13.86, -14.3, 16.09, 16.54, 0.0, 0.0, -7.4, -14.39, 0.0, 15.2, 14.3, 9.48, -0.0, -0.0, -0.0, 3.25, 8.05, -0.0, -6.8, -6.8, 6.29, 6.29, 6.29, 6.56, 6.96, 7.22, 7.6, 7.6, 7.6, 7.87, 7.6, 7.6, 7.6, 8.24, 7.61, 7.9, 8.21, 8.21, 8.21, 8.21, 8.85, 8.85, 9.17, 9.5, 9.5, 9.5, 9.84, 9.92, 10.29, 10.66, 10.8, 10.58, 10.79, 11.13, 11.4, 11.55, 11.62, 11.62, 11.11, 11.11, 10.41, 9.97, 9.63, 10.05, 9.97, 9.97, 9.54, 9.97, 9.89, 10.32, 10.32, 10.75, 10.18, 9.75, 10.18, 9.75, 9.33, 9.33, 9.33, 10.14, 8.8, 9.67, 7.59, 10.0, 10.0, 10.0, 10.18, 10.84, 10.84, 11.84, 12.27, 13.86, 14.3, 15.49, 19.67, 21.46, 20.56, -12.96, -15.19, -17.88, -17.43, 16.99, 15.65, 0.0, -11.06, -6.6, 0.0, 13.99, 13.41, 8.85, -0.0, -0.0, -0.0, -0.0, 5.8, 7.78, 14.75, 14.75, 6.31, 6.31, 6.56, 6.56, 6.96, 6.96, 7.6, 7.6, 7.6, 7.6, 7.6, 7.89, 7.95, 8.24, 7.61, 7.61, 8.53, 8.53, 8.84, 8.84, 8.84, 8.84, 9.5, 9.5, 9.84, 9.84, 10.19, 10.19, 10.53, 10.87, 11.5, 11.27, 11.11, 10.84, 11.0, 11.13, 11.18, 11.18, 11.18, 11.11, 10.47, 10.47, 9.75, 9.6, 9.6, 9.77, 9.76, 10.2, 10.2, 10.65, 10.62, 10.62, 10.18, 10.62, 10.14, 9.7, 9.7, 9.7, 9.7, 10.14, 10.14, 8.3, 10.18, 8.55, 8.55, 10.0, 9.75, 10.41, 10.84, 10.84, 12.96, 12.96, 15.65, 16.99, 19.22, 17.43, 17.43, 19.67, -21.46, -19.22, -19.22, -16.09, 12.96, 12.96, 13.41, 0.0, 9.17, 12.52, 12.52, 12.96, 9.17, -0.0, -0.0, -0.0, 3.96, 7.19, 9.8, 9.8, 6.31, 6.31, 6.31, 6.56, 6.96, 6.96, 7.33, 7.33, 7.89, 7.61, 7.95, 7.95, 8.24, 7.93, 7.93, 8.22, 8.53, 8.53, 8.84, 8.84, 8.84, 9.16, 9.16, 9.16, 9.49, 9.49, 9.82, 10.15, 10.15, 10.48, 10.8, 11.09, 11.61, 11.33, 11.05, 11.14, 11.14, 11.18, 11.18, 11.18, 10.68, 10.52, 10.04, 10.84, 9.16, 9.77, 10.22, 10.2, 10.2, 10.65, 10.62, 10.62, 10.18, 10.62, 9.74, 9.74, 9.7, 9.26, 9.7, 9.7, 9.83, 9.39, 10.28, 9.54, 8.93, 10.0, 9.33, 10.28, 10.73, 10.73, 11.62, 12.96, 15.65, 18.78, 20.8, 16.96, 13.44, 16.99, -15.8, -19.99, -17.81, -15.65, -13.41, 12.07, 12.07, 12.96, 13.41, 12.96, 12.96, 12.96, 12.96, 9.48, -0.0, -0.0, -0.0, 5.8, 7.44, 9.48, 6.31, 6.31, 6.31, 6.31, 6.96, 6.96, 7.61, 7.61, 7.61, 7.61, 7.95, 7.93, 7.93, 7.93, 8.22, 8.22, 8.22, 8.84, 8.84, 9.12, 9.42, 9.42, 9.42, 9.73, 9.73, 10.04, 9.82, 10.15, 10.48, 10.48, 10.8, 11.09, 11.37, 11.18, 11.33, 11.05, 11.14, 11.14, 11.18, 10.73, 10.73, 10.68, 10.23, 11.28, 9.42, 9.64, 10.22, 10.28, 10.28, 10.73, 10.28, 10.18, 10.18, 10.28, 9.83, 9.39, 9.39, 9.39, 9.39, 9.83, 9.83, 9.39, 10.73, 8.91, 9.33, 9.6, 10.73, 10.28, 10.73, 11.18, 11.18, 12.96, 14.75, 17.43, 23.67, 10.2, 8.18, 15.2, -18.66, -17.99, -16.12, -13.59, -10.75, -0.0, -0.0, 11.99, 13.15, 13.86, 13.41, 13.41, 13.41, 13.41, 13.41, -0.0, -0.0, 5.8, 9.48, 7.44, 5.89, 5.89, 6.31, 6.31, 6.7, 6.97, 7.61, 7.61, 7.61, 7.61, 7.93, 7.93, 7.93, 8.22, 8.22, 8.22, 8.22, 8.52, 8.84, 9.12, 9.42, 9.42, 9.42, 9.73, 9.73, 10.04, 10.04, 10.35, 10.65, 10.48, 10.8, 11.09, 11.37, 11.61, 11.18, 11.33, 11.05, 11.14, 11.18, 10.73, 10.73, 10.28, 10.23, 9.79, 11.35, 9.68, 10.68, 10.66, 10.2, 10.2, 9.74, 9.74, 9.29, 9.39, 9.39, 9.39, 8.94, 8.94, 9.39, 9.39, 9.83, 9.39, 7.6, 9.83, 10.28, 10.28, 9.33, 9.75, 10.18, 11.18, 11.18, 11.28, 13.86, 15.65, 19.67, -8.48, -5.85, -11.38, -14.3, -13.15, -11.99, -9.48, -0.0, -0.0, 9.17, 13.15, 14.3, 14.75, 14.3, 13.86, 13.86, 13.86, 13.86, 13.86, 13.41, 13.41, 11.6, 9.48, 5.89, 5.89, 6.31, 6.31, 6.97, 6.97, 7.33, 7.33, 7.33, 7.61, 7.93, 7.93, 8.22, 8.22, 7.9, 8.22, 8.52, 8.52, 8.52, 8.78, 9.42, 9.42, 9.73, 9.73, 9.73, 10.04, 10.04, 10.35, 10.65, 10.65, 10.94, 10.79, 10.95, 10.95, 11.18, 11.36, 11.49, 11.05, 11.14, 10.73, 10.73, 10.28, 10.28, 10.28, 9.83, 11.11, 10.12, 10.08, 9.6, 9.6, 9.33, 9.32, 9.32, 8.94, 8.94, 8.94, 8.49, 8.94, 8.94, 9.39, 9.39, 9.39, 10.73, 9.83, 9.83, 10.28, 8.8, 9.6, 9.75, 11.18, 11.62, 11.28, 12.58, 13.86, 15.65, -20.56, -27.19, -22.69, -13.15, -12.96, -14.75, -0.0, -0.0, 9.48, 12.72, 13.86, 14.3, 14.75, 14.75, 14.3, 14.3, 14.3, 13.86, 13.86, 13.41, 12.96, 12.96, 12.96, 6.07, 6.07, 6.07, 6.58, 6.58, 6.97, 6.97, 7.33, 7.61, 7.61, 7.93, 8.22, 8.22, 8.22, 7.9, 7.9, 8.52, 8.52, 8.52, 9.08, 9.08, 9.08, 9.37, 9.73, 10.24, 10.24, 10.35, 10.35, 10.65, 10.65, 10.53, 10.79, 10.79, 11.03, 11.18, 11.36, 11.36, 11.49, 11.14, 11.14, 10.73, 10.73, 10.28, 10.28, 10.73, 10.73, 10.25, 9.68, 9.24, 9.21, 9.34, 8.89, 8.89, 8.94, 8.49, 8.49, 8.05, 8.49, 8.94, 8.94, 9.29, 8.85, 8.49, 9.83, 9.83, 9.83, 10.28, 10.28, 10.28, 11.18, 11.28, 10.38, 12.58, 12.27, 14.75, -0.0, -21.9, -31.74, -26.72, -18.66, -18.78, -0.0, 12.64, 14.84, 13.41, 13.86, 13.86, 14.3, 14.75, 14.3, 14.3, 14.3, 13.15, 9.48, 12.96, 12.96, 12.96, 12.96, 6.33, 6.33, 6.33, 6.33, 6.58, 6.97, 6.97, 7.26, 7.61, 7.61, 7.93, 8.22, 8.22, 8.22, 7.9, 8.19, 8.19, 8.52, 8.78, 9.08, 9.08, 9.37, 9.37, 9.37, 9.86, 9.86, 10.13, 10.13, 10.4, 10.4, 10.53, 10.79, 10.79, 11.03, 11.23, 11.18, 11.36, 11.51, 11.49, 11.14, 11.14, 10.73, 10.73, 10.73, 10.73, 11.18, 10.73, 9.83, 9.35, 8.9, 8.9, 8.94, 8.94, 8.94, 8.49, 8.49, 8.05, 7.98, 8.43, 8.85, 8.85, 8.85, 8.85, 10.73, 9.83, 8.8, 10.28, 10.73, 10.28, 11.18, 10.84, 9.96, 11.03, 12.3, 13.41, 14.11, 14.3, 19.71, 27.59, 19.28, 17.07, 14.22, 15.74, 17.78, 13.99, 13.15, 13.57, 13.88, 14.03, 14.3, 13.86, 13.86, 13.86, 0.0, 0.0, 12.96, 12.96, 12.96, 6.33, 6.33, 6.33, 6.33, 6.33, 6.33, 6.33, 6.71, 6.98, 7.61, 7.61, 8.22, 8.22, 7.9, 7.9, 8.19, 8.19, 8.19, 8.78, 9.08, 9.08, 9.37, 9.37, 9.37, 9.67, 9.86, 10.13, 10.13, 10.4, 10.4, 10.65, 10.88, 10.79, 11.03, 11.23, 11.18, 11.36, 11.36, 11.49, 11.05, 11.14, 10.69, 10.69, 10.69, 10.73, 10.73, 10.73, 10.28, 9.83, 9.83, 9.39, 9.39, 8.94, 8.94, 8.94, 8.49, 8.44, 7.98, 7.98, 8.43, 8.41, 8.6, 8.6, 8.49, 10.73, 8.8, 9.83, 9.39, 10.28, 10.41, 11.03, 9.55, 10.6, 12.04, 13.41, 13.57, 14.79, 17.16, 20.39, 21.46, 21.72, 21.72, 22.23, -0.0, -7.6, -0.0, 4.66, 10.43, 13.19, 13.01, 14.3, 12.52, 12.96, 9.17, 0.0, 0.0, 0.0, 0.0, 6.33, 6.33, 6.33, 6.33, 6.33, 6.33, 6.33, 6.71, 6.98, 7.32, 7.32, 7.91, 8.22, 7.9, 7.9, 7.9, 8.19, 8.19, 8.19, 9.08, 9.08, 9.37, 9.37, 9.67, 9.67, 9.67, 9.97, 10.13, 10.4, 10.4, 10.65, 10.53, 10.79, 11.03, 11.03, 11.18, 11.18, 11.36, 11.33, 11.49, 11.05, 11.02, 11.14, 10.69, 10.69, 10.68, 10.73, 10.28, 10.28, 9.83, 9.83, 9.39, 9.39, 8.94, 8.94, 8.44, 8.44, 8.0, 7.81, 7.81, 8.24, 8.17, 8.6, 9.26, 8.94, 10.28, 9.83, 8.94, 9.83, 10.08, 9.55, 9.96, 11.46, 12.39, 13.41, 13.72, 14.61, 15.61, 16.74, 16.3, 21.2, 26.16, 9.05, -22.12, -16.09, -7.4, -0.0, 7.2, 10.12, 12.39, 13.41, 12.07, 12.52, 8.85, 0.0, 0.0, 0.0, 0.0, 6.33, 6.33, 6.33, 6.33, 6.33, 6.33, 6.33, 6.61, 6.98, 6.98, 7.32, 7.6, 7.9, 7.9, 7.9, 7.9, 8.19, 8.19, 8.19, 8.45, 9.08, 9.37, 9.37, 9.67, 9.67, 9.67, 9.97, 9.97, 10.26, 10.26, 10.53, 10.53, 10.79, 10.79, 10.95, 10.95, 11.18, 11.18, 11.33, 10.89, 11.05, 11.02, 11.02, 11.14, 10.68, 10.68, 10.68, 10.24, 10.28, 10.28, 9.83, 9.39, 9.34, 8.9, 8.45, 8.44, 8.44, 7.85, 7.85, 7.81, 7.81, 8.24, 7.81, 8.3, 8.77, 9.83, 9.39, 9.39, 9.83, 9.83, 10.08, 11.18, 11.62, 12.52, 12.96, 13.41, 14.3, 15.08, 15.61, 15.49, 17.16, 20.25, -25.99, -26.37, -19.93, -9.43, -3.07, -0.0, 6.2, 12.96, 12.52, 12.52, 12.07, 0.0, 0.0, 0.0, 0.0, 0.0, 6.33, 6.33, 6.33, 6.33, 6.33, 6.61, 6.61, 6.61, 6.98, 6.98, 6.98, 7.32, 7.6, 7.9, 7.9, 7.9, 8.19, 8.19, 8.19, 8.19, 8.73, 9.08, 9.37, 9.37, 9.67, 9.67, 9.97, 9.97, 10.26, 10.26, 10.53, 10.53, 10.79, 10.79, 10.95, 10.95, 11.18, 10.68, 10.89, 10.89, 10.84, 11.02, 11.02, 11.02, 11.0, 10.68, 10.68, 10.24, 10.24, 10.24, 9.79, 9.79, 9.34, 8.9, 8.9, 8.29, 8.29, 7.85, 7.85, 7.63, 7.12, 7.53, 7.81, 7.67, 8.3, 10.28, 9.83, 9.39, 9.83, 9.83, 10.28, 10.73, 11.62, 11.84, 12.52, 13.41, 13.86, 14.3, 14.18, 14.38, 15.2, 17.99, -25.02, -28.16, -24.65, -10.91, -4.81, -0.0, 12.96, 12.52, 12.52, 12.07, 11.62, 11.18, 0.0, 0.0, 0.0, 0.0, 6.33, 6.33, 6.08, 6.34, 6.34, 6.34, 6.34, 6.34, 6.34, 6.98, 6.98, 6.98, 7.6, 7.6, 7.9, 7.9, 8.19, 8.19, 8.19, 8.19, 8.49, 8.73, 9.01, 9.01, 9.3, 9.3, 9.58, 9.97, 9.97, 10.26, 10.26, 10.53, 10.53, 10.68, 10.68, 10.95, 10.43, 10.68, 10.68, 10.89, 10.84, 10.84, 11.02, 11.02, 11.0, 11.0, 10.56, 10.68, 10.24, 10.24, 9.79, 9.79, 9.34, 8.77, 8.77, 8.29, 8.29, 7.85, 7.63, 7.63, 7.63, 7.12, 7.4, 7.6, 7.28, 8.67, 8.94, 9.39, 9.39, 9.54, 9.54, 9.97, 10.96, 11.84, 12.27, 12.71, 13.41, 13.41, 14.11, 13.99, 13.99, 14.79, -20.12, -24.69, -22.55, -12.21, -0.0, -0.0, 11.62, -8.85, -8.53, 11.62, 10.73, 10.28, 0.0, 0.0, 0.0, 0.0, 6.08, 6.34, 6.34, 6.34, 6.34, 6.34, 6.34, 6.34, 6.34, 6.7, 6.7, 6.7, 7.6, 7.6, 7.6, 7.9, 8.19, 8.19, 8.19, 8.19, 8.49, 8.49, 9.01, 9.01, 9.3, 9.3, 9.3, 9.58, 9.58, 9.86, 10.26, 10.53, 10.4, 10.27, 10.27, 10.52, 10.43, 10.68, 10.68, 10.89, 10.89, 10.84, 10.84, 10.84, 11.0, 11.0, 10.56, 10.56, 10.12, 10.12, 10.12, 9.68, 9.21, 8.77, 8.77, 8.29, 8.29, 7.63, 7.63, 7.63, 7.63, 7.21, 7.12, 7.2, 6.9, 8.67, 8.94, 9.11, 9.11, 8.8, 8.18, 8.18, 8.8, 10.96, 12.07, 12.52, 12.96, 12.96, 13.59, 14.55, 13.99, 13.19, 7.0, -11.27, -17.46, -5.94, -0.0, -0.0, 10.73, 0.0, -8.22, -8.22, 0.0, 0.0, 0.0, -4.4, -4.4, -4.4, 6.34, 6.34, 6.34, 6.34, 6.34, 6.34, 6.34, 6.34, 6.34, 6.7, 6.98, 6.98, 6.98, 7.3, 7.6, 7.6, 8.19, 8.19, 8.19, 8.49, 8.49, 8.49, 8.79, 8.79, 9.01, 9.3, 9.3, 9.58, 9.58, 9.86, 9.86, 10.0, 10.0, 10.27, 10.27, 10.43, 10.43, 10.68, 10.68, 10.68, 10.89, 10.84, 10.84, 10.84, 10.84, 10.78, 10.56, 10.56, 10.56, 10.12, 10.12, 9.68, 9.64, 8.56, 8.56, 8.06, 8.06, 7.63, 7.63, 7.63, 7.63, 6.94, 6.8, 6.32, 6.08, 6.94, 9.11, 9.11, 8.4, 8.8, 7.27, 7.27, 7.27, 6.95, 10.96, 11.62, 12.52, 12.96, 13.41, 13.86, 14.03, 12.79, -0.0, -8.74, -12.19, -6.5, -3.16, -0.0, 7.59, 0.0, -7.9, -7.9, -5.2, 0.0, 0.0, -4.4, -4.4, -4.4, 6.34, 6.34, 6.34, 6.34, 6.34, 6.34, 6.34, 6.34, 6.63, 6.98, 6.98, 6.98, 6.98, 6.98, 7.3, 7.59, 7.59, 7.86, 7.86, 8.15, 8.49, 8.49, 8.79, 8.79, 8.79, 9.09, 9.09, 9.58, 9.58, 9.7, 9.7, 10.0, 10.0, 10.27, 10.27, 10.43, 10.43, 10.43, 10.68, 10.68, 10.68, 10.6, 10.84, 10.84, 10.84, 10.78, 10.35, 10.35, 10.35, 9.92, 9.92, 9.49, 9.42, 8.56, 8.56, 8.06, 8.06, 8.06, 7.63, 7.63, 6.94, 6.94, 6.8, 6.32, 6.08, 6.8, 9.11, 9.39, 9.64, 9.11, 8.8, 7.27, 5.7, 5.7, 9.2, 10.96, 12.07, 12.52, 12.96, 12.96, 13.15, 12.39, -0.0, -23.38, -19.6, -10.12, -6.14, -3.14, -0.0, 10.28, -10.0, -9.3, -8.22, -5.2, -4.8, -4.6, -4.6, -4.6, 5.7, 5.7, 6.08, 6.35, 6.35, 6.35, 6.35, 6.63, 6.63, 6.98, 6.98, 6.98, 6.98, 6.98, 7.28, 7.59, 7.59, 7.59, 8.15, 8.15, 8.15, 8.15, 8.79, 8.79, 9.09, 9.09, 9.09, 9.4, 9.4, 9.7, 9.7, 10.0, 10.0, 10.27, 10.15, 10.15, 10.43, 10.43, 10.43, 10.43, 10.68, 10.6, 10.6, 10.84, 10.84, 10.84, 10.78, 10.35, 10.35, 9.92, 9.92, 9.49, 8.99, 8.56, 8.56, 8.06, 8.06, 8.06, 7.35, 7.35, 6.94, 6.94, 6.8, 6.32, 5.37, 6.32, 7.6, 7.45, 10.28, 10.28, 10.08, 9.2, 8.55, 7.27, 5.7, 9.6, 10.79, 11.21, 12.14, 12.52, 12.58, 11.09, -17.02, -26.11, -23.99, -13.28, -9.49, -6.67, -2.93, -8.22, -11.18, -10.6, -10.0, -7.9, -7.59, -7.27, -7.27, -7.27, 5.7, 5.7, 6.35, 6.35, 6.35, 6.35, 6.35, 6.35, 6.35, 6.35, 6.69, 6.69, 6.69, 6.97, 6.97, 7.27, 7.27, 7.27, 7.88, 8.15, 8.15, 8.44, 8.44, 9.09, 9.09, 9.09, 9.4, 9.4, 9.4, 9.7, 9.7, 10.0, 10.0, 10.15, 10.15, 10.15, 10.15, 10.43, 10.43, 10.43, 10.32, 10.6, 10.6, 10.6, 10.6, 10.5, 10.5, 10.35, 10.35, 10.35, 9.92, 9.92, 8.99, 8.99, 8.56, 8.06, 7.76, 7.76, 7.35, 7.35, 7.35, 6.94, 6.8, 6.18, 5.03, 5.69, 8.05, 7.89, 10.28, 10.73, 10.73, 10.73, 10.73, 9.75, 6.95, 6.95, 8.58, 10.79, 12.14, 12.52, 8.85, 9.48, -10.41, -23.21, -26.22, -14.88, -10.82, -7.59, -6.44, -9.3, -11.18, -11.62, -10.4, -7.9, -6.2, -5.46, -5.46, -5.46, 5.98, 5.98, 5.98, 6.35, 6.35, 6.35, 6.35, 6.35, 6.35, 6.35, 6.69, 6.97, 6.97, 6.97, 6.97, 6.97, 7.55, 7.55, 7.55, 7.88, 8.19, 8.44, 8.44, 8.73, 8.73, 9.02, 9.02, 9.4, 9.7, 9.7, 10.0, 10.0, 10.0, 10.15, 10.15, 10.15, 10.15, 10.15, 10.43, 10.43, 10.32, 10.32, 10.18, 10.18, 10.18, 10.08, 10.08, 10.08, 10.08, 10.08, 9.66, 9.66, 8.72, 8.72, 8.3, 8.17, 7.76, 7.76, 7.35, 7.2, 7.2, 7.03, 6.82, 6.55, 5.69, 4.83, 8.06, 8.49, 8.49, 10.73, 10.73, 10.73, 10.73, 10.28, 8.55, 8.23, 8.82, 10.38, 11.62, 11.71, 7.51, 7.36, 3.51, -14.86, -26.3, -22.6, -13.39, -9.67, -9.58, -10.0, -11.62, -11.03, -11.03, -8.22, -6.2, -5.7, -5.7, -5.7, 5.72, 5.72, 5.98, 6.35, 6.35, 6.35, 6.35, 6.35, 6.64, 6.97, 6.97, 6.97, 6.97, 6.97, 6.97, 7.27, 7.27, 7.55, 7.55, 7.85, 7.85, 8.19, 8.5, 8.73, 9.02, 9.02, 9.02, 9.32, 9.32, 9.32, 10.0, 10.0, 10.0, 9.74, 9.74, 9.74, 10.15, 10.15, 10.43, 10.32, 10.32, 9.9, 9.9, 10.18, 10.08, 10.08, 10.08, 10.08, 10.08, 10.08, 9.66, 9.13, 8.72, 8.72, 8.3, 8.17, 7.76, 7.76, 7.76, 7.2, 6.82, 7.03, 6.82, 6.55, 5.15, 4.37, 6.01, 8.24, 8.49, 10.14, 10.14, 10.52, 9.97, 9.54, 8.18, 6.95, 7.87, 9.75, 10.73, 11.4, 7.78, 7.13, 4.95, -3.16, -20.25, -25.47, -17.67, -13.2, -10.0, -10.0, -11.62, -11.28, -10.04, -8.22, -6.2, -7.9, -7.9, -7.9, 5.72, 5.72, 5.72, 5.72, 6.08, 6.08, 6.35, 6.35, 6.35, 6.67, 6.67, 6.67, 6.95, 7.27, 7.27, 7.27, 7.27, 7.85, 7.85, 7.85, 7.85, 8.15, 8.15, 8.82, 8.82, 8.82, 9.32, 9.32, 9.32, 9.6, 9.6, 9.6, 9.6, 9.74, 9.74, 9.74, 9.74, 10.15, 10.43, 10.32, 10.32, 9.9, 9.9, 9.9, 10.08, 10.08, 10.08, 10.08, 10.08, 10.08, 9.66, 9.13, 9.13, 8.72, 8.17, 8.17, 7.76, 7.76, 7.42, 7.42, 7.03, 7.03, 7.03, 6.79, 6.01, 4.37, 6.32, 8.0, 8.82, 10.14, 10.14, 10.08, 9.54, 8.4, 7.51, 5.63, 5.63, 7.51, 10.08, 10.4, 10.01, 10.73, 5.48, -2.87, -18.5, -26.29, -18.91, -14.38, -11.5, -10.79, -11.62, -11.03, -10.04, -10.04, -8.22, -8.22, -8.22, -8.22, 5.32, 5.32, 5.72, 5.72, 5.72, 6.35, 6.35, 6.35, 6.35, 6.65, 6.95, 6.95, 6.95, 6.95, 7.27, 7.58, 7.58, 7.58, 7.85, 8.15, 8.15, 8.15, 8.15, 8.45, 8.82, 9.14, 9.14, 9.14, 9.14, 9.6, 9.6, 9.6, 9.6, 9.74, 9.74, 9.74, 9.74, 9.74, 10.01, 9.9, 9.9, 9.9, 9.9, 9.77, 9.77, 9.77, 9.77, 10.08, 10.08, 10.08, 9.66, 9.13, 9.13, 8.72, 8.3, 7.82, 7.42, 7.42, 7.42, 7.42, 7.42, 7.42, 7.07, 6.79, 6.01, 4.71, 5.36, 6.32, 8.3, 8.85, 9.39, 11.18, 10.08, 8.4, 7.51, 7.51, 7.51, 8.8, 10.28, 11.28, 12.27, 11.99, 6.6, -3.24, -16.12, -26.29, -19.47, -15.97, -13.88, -13.23, -12.14, -12.07, -11.87, -10.79, -8.53, -8.53, -8.53, -8.53, 5.08, 5.08, 5.08, 5.46, 5.72, 6.0, 6.06, 6.34, 6.34, 6.34, 6.65, 6.95, 7.25, 7.25, 7.25, 7.25, 7.25, 7.25, 7.8, 8.15, 8.15, 8.15, 8.45, 8.45, 8.45, 8.76, 9.14, 9.14, 9.14, 9.45, 9.45, 9.45, 9.45, 9.74, 9.74, 9.74, 9.74, 9.74, 10.01, 9.9, 9.9, 9.9, 9.9, 9.9, 9.77, 9.77, 9.77, 9.77, 9.77, 9.77, 9.36, 8.8, 8.8, 8.4, 8.4, 8.0, 7.42, 7.42, 7.42, 7.42, 7.42, 7.07, 7.07, 6.79, 6.01, 4.71, 4.6, 5.36, 8.3, 8.82, 9.39, 11.18, 10.28, 10.41, 9.21, 9.64, 9.64, 9.54, 10.28, 10.73, 12.07, 12.58, 8.58, -0.0, -12.61, -26.29, -21.9, -16.09, -14.3, -13.86, -12.52, -12.52, -11.45, -8.85, -8.85, -5.4, -5.4, -5.4, 5.34, 5.34, 5.34, 5.34, 5.72, 5.72, 6.01, 6.34, 6.34, 6.34, 6.64, 6.95, 7.25, 7.25, 7.25, 7.25, 7.25, 7.56, 7.8, 7.8, 7.8, 8.45, 8.45, 8.45, 8.76, 8.76, 8.76, 9.14, 9.14, 9.45, 9.45, 9.45, 9.45, 9.74, 9.74, 9.74, 9.74, 10.01, 10.01, 9.9, 9.9, 9.9, 9.9, 9.9, 9.9, 9.77, 9.77, 9.77, 9.77, 9.36, 9.36, 8.8, 8.8, 8.4, 8.4, 8.0, 8.0, 7.42, 7.07, 7.07, 7.07, 7.07, 7.07, 7.07, 6.01, 4.94, 4.0, 5.36, 7.15, 8.3, 9.26, 9.39, 9.39, 11.62, 9.21, 9.64, 9.64, 9.54, 9.97, 10.41, 11.28, 12.58, 9.8, 2.89, -0.0, -17.7, -23.81, -18.78, -15.65, -14.75, -13.67, -13.01, -10.79, -6.94, -3.96, -5.6, -5.6, -5.6, 5.34, 5.34, 5.34, 5.34, 5.72, 5.72, 6.01, 6.34, 6.34, 6.34, 6.64, 6.95, 7.25, 7.25, 7.25, 7.25, 7.25, 7.56, 7.8, 7.8, 7.8, 8.45, 8.45, 8.45, 8.76, 8.76, 8.76, 9.14, 9.14, 9.45, 9.45, 9.45, 9.45, 9.74, 9.74, 9.74, 9.74, 10.01, 10.01, 9.9, 9.9, 9.9, 9.9, 9.9, 9.9, 9.77, 9.77, 9.77, 9.77, 9.36, 9.36, 8.8, 8.8, 8.4, 8.4, 8.0, 8.0, 7.42, 7.07, 7.07, 7.07, 7.07, 7.07, 7.07, 6.01, 4.94, 4.0, 5.36, 7.15, 8.3, 9.26, 9.39, 9.39, 11.62, 9.21, 9.64, 9.64, 9.54, 9.97, 10.41, 11.28, 12.52, 9.48, 6.4, 3.16, -0.0, -16.75, -19.51, -19.22, -16.09, -14.99, -12.79, -9.8, -7.44, -3.96, 0.0, 0.0, 0.0]}, {"header": {"dx": 0.06612293990616946, "dy": 0.0552356325346848, "nx": 98, "ny": 59, "la1": 35.046912555036876, "la2": 31.78801023549047, "lo1": -121.43107172385933, "lo2": -114.95102361305473, "refTime": "2026041517", "parameterCategory": 1, "parameterNumber": 3}, "data": [-12.93, -13.05, -12.72, -12.86, -12.41, -12.27, -11.93, -10.69, -10.12, -8.51, -7.44, -5.6, -3.81, -4.1, -3.82, -6.45, -11.62, -10.0, -9.67, -8.85, -7.19, -5.8, -4.32, -2.19, -2.71, -3.68, -6.7, -8.85, -10.04, -11.45, -12.52, -12.96, -12.14, -10.0, -9.55, -7.87, -8.4, -7.81, -6.64, -4.6, -3.11, -6.2, -6.45, -8.53, -8.3, -9.06, -9.47, -8.66, -7.44, -6.2, -4.52, 0.0, 3.69, 11.06, 12.52, 11.06, 8.05, 4.95, 4.81, 4.66, 5.48, 5.48, 6.6, 6.4, 5.15, 4.52, 3.93, 3.47, 3.3, 3.16, 3.16, 3.39, 1.73, 1.73, 1.94, 1.73, 0.0, 0.0, -2.09, -5.48, -7.93, -9.48, -5.8, -8.85, 0.0, 0.0, 0.0, 0.0, 0.0, 6.2, 10.01, 12.45, 13.15, 13.19, 13.56, 13.15, 11.92, 12.46, -12.53, -12.38, -12.5, -12.51, -12.65, -12.13, -11.9, -11.17, -10.69, -9.21, -8.54, -6.88, -5.11, -4.93, -4.81, -5.4, -10.41, -12.07, -10.04, -9.3, -9.48, -9.17, -5.8, -3.14, -2.6, -3.53, -3.68, -8.53, -11.45, -12.14, -14.3, -13.86, -12.14, -9.13, -7.47, -7.67, -7.06, -8.67, -9.11, -8.55, -8.85, -9.48, -10.12, -9.53, -10.3, -11.3, -9.8, -9.8, -7.69, -5.48, 0.0, 3.69, 9.12, 10.75, 11.87, 9.77, 7.0, 4.81, 4.18, 4.66, 2.43, 2.89, 2.81, 2.72, 2.72, 2.28, 3.93, 3.47, 3.3, 3.16, 3.24, 3.16, 1.78, 0.0, 0.0, 0.0, 0.0, 0.0, -2.09, -5.48, -7.93, -9.48, -5.8, -8.85, 0.0, 0.0, 0.0, 0.0, 0.0, 6.2, 10.01, 12.45, 13.15, 13.19, 13.56, 13.15, 11.92, 12.46, -12.53, -12.53, -12.5, -12.33, -12.13, -12.03, -11.44, -11.57, -10.82, -9.48, -9.17, -7.65, -6.43, -6.7, -6.45, -6.45, -8.22, -11.4, -11.84, -12.3, -9.3, -6.94, -6.94, -6.0, -4.38, -2.6, -3.39, -7.59, -10.6, -11.62, -14.75, -15.2, -14.3, -11.18, -7.89, -8.0, -7.89, -8.3, -9.64, -10.79, -10.04, -10.04, -10.25, -10.48, -11.07, -10.69, -9.17, -8.05, -4.66, 0.0, 4.81, 10.75, 9.12, 10.75, 9.22, 7.82, 4.81, 4.18, 4.05, 4.05, 2.09, 2.35, 2.28, 2.28, 2.28, 2.35, 2.09, 1.94, 1.73, 1.6, 1.6, 0.0, 0.0, -1.68, -3.2, -3.58, -1.89, 0.0, -3.93, -8.85, -10.12, -11.16, -9.17, -10.8, -11.62, -8.22, -5.0, -2.71, 0.0, 3.04, 10.12, 13.19, 12.65, 12.65, 12.79, 11.99, 11.6, 11.87, -12.67, -12.53, -12.38, -12.5, -12.13, -12.27, -11.76, -11.09, -10.73, -9.97, -8.85, -8.22, -7.28, -5.77, -8.22, -8.22, -8.22, -10.35, -11.62, -11.71, -10.0, -7.9, -6.2, -6.98, -7.54, -7.19, -7.27, -6.95, -9.83, -11.18, -12.07, -13.86, -15.65, -15.65, -12.52, -10.41, -9.97, -9.6, -9.63, -10.62, -10.73, -10.48, -10.62, -9.88, -9.42, -7.54, -6.2, 0.0, 4.66, 6.6, 8.18, 8.43, 8.85, 8.85, 7.59, 5.48, 4.66, 4.05, 4.05, 2.02, 2.09, 2.35, 2.35, 4.38, 4.38, 4.05, 3.79, 3.39, 1.73, 1.62, 0.0, 0.0, -3.07, -5.99, -6.95, -6.2, -5.81, -2.15, -2.98, -11.53, -13.01, -12.72, -12.3, -11.62, -11.18, -11.03, -8.53, -6.45, 0.0, 7.69, 10.75, 12.27, 12.39, 10.73, 11.12, 11.5, 11.12, 12.27, -12.67, -12.53, -12.38, -12.21, -12.33, -11.9, -11.66, -11.39, -10.73, -10.03, -8.97, -8.64, -7.85, -6.45, -7.9, -8.93, -8.93, -8.22, -9.97, -12.07, -12.96, -11.2, -8.22, -8.22, -7.59, -8.53, -10.41, -10.8, -11.18, -10.28, -10.52, -11.02, -11.46, -12.52, -14.3, -14.3, -14.75, -12.39, -9.4, -10.58, -11.38, -10.23, -9.48, -8.05, -6.88, -5.46, -2.02, 0.0, 2.89, 3.69, 3.58, 6.4, 6.4, 6.6, 5.48, 4.66, 4.05, 4.05, 3.58, 2.02, 2.02, 2.28, 4.38, 4.66, 4.05, 4.54, 4.12, 4.01, 3.98, 2.22, 2.17, 0.0, -2.59, -10.89, -13.02, -9.96, -8.66, -5.31, -4.38, -12.72, -12.96, -12.58, -12.07, -11.18, -11.18, -11.28, -8.53, 0.0, 11.99, 12.65, 11.9, 10.79, 11.2, 11.6, 10.37, 9.48, 10.37, 12.27, -12.67, -12.53, -12.53, -12.38, -12.33, -11.75, -11.53, -11.28, -10.73, -10.37, -9.34, -8.65, -7.95, -5.77, -6.2, -7.9, -8.59, -8.93, -8.73, -9.67, 0.0, 0.0, -13.41, -13.41, -11.2, -10.8, -11.45, -11.45, -12.96, -12.07, -9.54, -8.23, -7.27, -6.17, -8.53, -13.86, -13.41, -11.87, -10.62, -11.12, -12.22, -12.27, -8.66, -6.4, -5.63, -4.05, -3.58, -1.77, 0.0, 0.0, 0.0, 2.72, 2.72, 2.81, 2.43, 4.05, 4.05, 4.05, 3.58, 3.47, 1.96, 4.24, 4.66, 4.81, 4.42, 4.12, 4.23, 2.34, 2.11, 2.5, 6.02, 6.36, 8.2, 0.0, -18.33, -16.54, -11.99, -7.19, -9.17, -12.96, -12.07, -11.62, -11.18, -11.62, -11.62, -11.4, -8.53, 13.41, 14.75, 13.88, 12.58, 11.99, 11.99, 10.37, 9.17, 9.48, 11.6, 12.52, -12.28, -12.14, -12.14, -11.99, -11.82, -11.94, -11.37, -11.28, -10.66, -10.01, -9.66, -8.65, -7.65, -5.92, -5.4, -5.32, -7.15, -8.22, -7.9, -3.39, 7.59, 6.45, 6.2, 3.82, 0.0, 0.0, -11.62, -12.07, -11.87, -10.41, -11.18, -8.8, -5.06, -2.97, -2.71, 0.0, 12.52, 9.48, -5.2, -9.55, -12.52, -12.58, -11.9, -8.43, -3.79, -2.5, -2.65, -2.15, -1.96, -2.72, 0.0, 0.0, 0.0, 0.0, 0.0, 1.96, 2.02, 2.02, 1.77, 1.72, 4.24, 4.24, 4.81, 5.09, 4.54, 4.54, 4.67, 2.28, 0.0, 2.53, 3.38, 10.12, 12.01, 15.69, 16.99, -0.0, -15.2, -13.41, -11.99, -13.41, -11.62, -11.4, -12.07, -12.07, -12.07, -12.35, 0.0, 14.3, 14.3, 13.41, 13.15, 12.45, 10.73, 9.48, 6.0, 7.19, 12.52, 12.07, -12.28, -12.28, -12.14, -11.99, -11.82, -11.94, -11.37, -11.16, -10.55, -9.92, -9.56, -9.3, -8.82, -7.56, -6.7, -5.69, -6.71, -6.76, -5.95, -2.6, 2.6, 4.15, 4.48, 6.21, 5.75, 3.25, 4.6, 0.0, -11.62, -10.6, -11.18, -11.62, -9.3, -5.95, 0.0, 7.9, 9.75, 9.3, 5.6, -0.0, -11.18, -10.8, -8.85, 0.0, 6.6, 5.09, 3.07, 0.0, -2.89, -3.47, -2.45, 0.0, 0.0, 0.0, 0.0, 0.0, 0.0, 0.0, 0.0, 1.83, 1.71, 2.2, 2.5, 2.57, 2.65, 4.67, 2.11, 0.0, 0.0, 0.0, 2.94, 3.59, 5.98, 9.39, 12.65, 13.19, 0.0, 0.0, -9.17, -14.3, -13.86, -12.27, -11.91, -12.39, -12.42, -12.72, 0.0, 13.41, 12.96, 12.96, 12.71, 11.6, 9.48, 6.2, 6.0, 12.14, 12.07, 11.46, -12.28, -12.28, -12.14, -12.14, -11.99, -11.44, -11.56, -10.99, -10.41, -9.82, -9.56, -9.52, -10.19, -9.86, -9.09, -9.09, -7.9, -7.9, -6.98, -2.6, 0.0, 3.68, 6.45, 8.53, 8.53, 6.94, 6.64, 6.95, 0.0, -10.73, -10.28, -10.73, 0.0, 5.0, 5.0, 7.27, 10.73, 10.18, 10.4, 10.0, 12.52, 8.85, 8.85, 12.72, 13.57, 11.09, 8.93, 9.42, 3.16, 0.0, 0.0, 0.0, 0.0, 0.0, 0.0, -1.96, -1.96, 0.0, 0.0, 0.0, 0.0, 0.0, 0.0, 0.0, 0.0, 0.0, 0.0, 0.0, 0.0, 0.0, 0.0, 0.0, 0.0, 0.0, 4.66, 5.31, 3.36, 4.1, 0.0, -15.2, -13.57, -13.41, -13.28, -11.88, -10.41, -9.77, -3.14, 11.6, 12.52, 12.96, 12.58, 9.17, 5.8, 6.0, 9.48, 12.27, 11.62, 12.07, -12.28, -12.28, -11.75, -11.75, -11.61, -11.44, -11.44, -10.88, -10.99, -10.41, -10.19, -10.41, -8.86, -8.94, -10.16, -10.46, -10.0, -9.7, -9.3, 0.0, 7.59, 9.6, 10.4, 11.03, 10.6, 9.3, 8.18, 8.8, 7.59, 0.0, 10.73, 11.18, 9.83, 9.6, 8.22, 8.22, 10.73, 8.77, 11.62, 12.52, 11.84, 11.2, 11.71, 11.28, 10.4, 10.37, 8.05, 7.36, 7.0, 4.95, 2.43, 0.0, -2.35, -3.81, -3.81, -3.93, -3.81, -3.82, -1.76, -2.06, 0.0, 0.0, 0.0, 0.0, 0.0, 0.0, -2.22, -1.78, -1.72, -2.02, -2.09, -1.94, -2.0, 0.0, 0.0, 0.0, 0.0, 0.0, 0.0, 0.0, -15.2, -16.05, -16.05, -12.52, -8.66, -5.28, 0.0, 0.0, 6.0, 11.6, 9.17, 6.94, 5.6, 5.8, 10.37, 12.27, 12.52, 12.52, -12.28, -12.28, -11.75, -11.75, -11.75, -11.61, -11.44, -10.88, -10.68, -10.68, -10.45, -10.68, -10.12, -8.87, -8.85, -9.48, -11.61, -12.27, -12.96, 13.41, 13.57, 14.75, 13.86, 12.52, 12.96, 10.73, 10.28, 9.83, 9.33, 8.18, 9.97, 9.26, 9.64, 8.8, 6.95, 8.22, 9.67, 11.28, 11.4, 11.2, 11.6, 11.2, 11.28, 10.8, 10.4, 8.22, 4.48, 3.96, 2.13, 2.2, 0.0, 0.0, -2.28, -7.2, -8.93, -9.17, -10.33, -9.8, -5.46, 0.0, 0.0, 5.65, 0.0, 0.0, -3.9, -2.94, -4.66, -6.28, -5.99, -4.93, -5.46, -5.18, -5.65, -3.9, -1.89, -1.66, -1.64, -1.84, -2.35, -3.69, -13.59, -14.84, -16.09, -15.19, -8.28, -4.05, -1.68, 0.0, 0.0, 0.0, 0.0, 3.96, 5.6, 5.6, 7.24, 10.37, 12.71, 12.79, -12.28, -12.28, -11.88, -11.75, -11.75, -11.61, -11.61, -11.44, -11.26, -11.05, -11.05, -10.73, -10.41, -8.54, -7.18, -6.84, -7.44, -10.04, -12.96, 0.0, 14.3, 14.75, 14.3, 15.65, 12.72, 11.87, 10.8, 8.24, 10.73, 10.18, 10.84, 9.96, 9.96, 9.2, 9.2, 8.58, 9.2, 9.97, 9.3, 8.53, 8.85, 8.53, 10.4, 11.62, 9.6, 7.27, 6.7, 3.96, 0.0, 0.0, 0.0, 0.0, 0.0, 0.0, -4.66, -8.6, -14.22, -18.78, -12.07, 13.86, 17.88, 17.78, 9.67, 0.0, -3.16, -3.16, -6.14, -12.65, -14.22, -12.01, -9.44, -6.88, -6.6, -5.99, -5.11, -4.23, -5.2, -6.6, -6.16, -4.95, -3.9, -14.39, -16.99, -17.35, -15.02, -8.6, -6.12, -3.3, -1.63, -1.96, -2.06, 0.0, 2.82, 2.28, 2.45, 5.8, 10.37, 12.04, -12.51, -12.28, -11.88, -11.75, -11.75, -11.75, -11.61, -11.61, -11.16, -10.96, -10.96, -10.73, -10.41, -9.78, -7.89, -6.87, -5.43, -4.55, -3.25, 0.0, 0.0, 0.0, 15.2, 10.43, 12.79, 11.53, 11.16, 12.58, 12.07, 9.83, 10.96, 11.02, 10.52, 9.97, 9.97, 9.2, 8.55, 7.9, 7.9, 6.2, 8.22, 10.4, 11.18, 9.83, 10.28, 9.6, 8.22, 3.82, 4.1, 0.0, 0.0, 2.63, 6.4, 12.65, 15.19, 12.96, 0.0, -22.8, -3.9, 9.66, 16.09, 15.69, 13.95, 5.09, 0.0, 0.0, 0.0, -15.02, -22.83, -23.75, -19.17, -16.41, -11.17, -8.22, -6.95, -7.26, -10.43, -11.38, -11.38, -9.17, -7.2, -7.4, -11.38, -16.54, -16.48, -15.02, -12.29, -8.87, -5.65, -5.02, -3.81, -3.68, 0.0, 0.0, 0.0, 2.13, 7.78, 10.73, -12.11, -12.11, -11.88, -11.88, -11.75, -11.75, -11.75, -11.34, -11.34, -11.16, -10.65, -10.65, -10.65, -10.09, -9.17, -7.87, -7.44, -5.62, -4.98, -3.36, -4.52, -4.52, 0.0, 0.0, 10.12, 11.9, 12.39, 12.87, 12.72, 12.35, 10.73, 10.73, 11.18, 9.54, 9.33, 6.95, 6.95, 9.2, 9.2, 9.6, 10.73, 10.28, 10.73, 10.28, 9.83, 10.28, 9.11, 7.9, 8.22, 8.85, 6.94, 8.53, 12.07, 12.07, 12.52, 11.2, 11.06, 0.0, -0.0, 10.82, 13.75, 15.34, 16.05, 14.13, 11.7, 7.4, 6.47, 5.94, -15.17, -22.8, -23.69, -21.2, -16.39, -7.27, -7.9, -14.75, -16.54, -16.54, -13.59, -13.26, -12.01, -8.51, -5.81, -4.81, -15.65, -15.69, -15.99, -17.02, -13.61, -9.17, -7.1, -6.2, -5.0, -3.96, -1.77, 0.0, 2.13, 4.81, -12.11, -12.11, -12.51, -12.28, -12.14, -11.75, -11.5, -11.88, -11.34, -11.16, -10.87, -10.65, -10.35, -10.09, -9.78, -8.54, -8.05, -6.9, -6.36, -5.55, -5.45, -5.46, -6.4, -10.12, 0.0, 12.39, 13.44, 12.87, 12.72, 12.89, 12.52, 10.28, 11.18, 9.75, 9.2, 9.2, 7.59, 9.83, 11.18, 9.83, 9.2, 9.6, 8.8, 8.8, 8.8, 9.83, 9.83, 10.28, 10.73, 10.6, 11.03, 11.18, 10.73, 9.39, 9.83, 8.93, 8.22, 7.69, 15.25, 17.43, 12.83, 12.96, 13.44, 13.88, 14.31, 14.42, 13.76, 14.13, 7.2, -14.22, -14.54, 5.2, 12.85, 8.85, 8.05, 4.01, -0.0, -15.99, -16.99, -16.48, -13.95, -12.01, -8.05, -2.63, 0.0, 0.0, -15.2, -16.09, -15.61, -11.7, -10.61, -8.59, -8.22, -6.94, -3.68, 0.0, 0.0, 0.0, -12.11, -12.11, -12.51, -12.28, -12.28, -12.28, -11.88, -11.5, -11.34, -11.07, -10.87, -10.59, -10.35, -10.7, -9.78, -9.48, -8.49, -8.1, -7.25, -6.36, -6.42, -6.51, -6.2, -7.59, 0.0, 13.19, 13.86, 13.44, 12.45, 12.72, 12.89, 11.98, 10.28, 10.73, 9.97, 7.44, 4.6, 0.0, -0.0, 7.27, 6.64, 6.64, 4.6, 6.95, 8.8, 8.91, 9.33, 10.28, 10.28, 10.28, 11.18, 11.62, 11.62, 10.73, 8.91, 8.8, 7.27, 8.22, 12.27, 15.18, 12.07, 11.62, 11.03, 11.45, 11.45, 12.3, 9.17, 6.8, 3.9, 0.0, 15.17, 16.79, 16.79, 16.79, 14.42, 14.66, 4.66, -5.94, -16.39, -18.33, -18.33, -16.39, -12.01, -8.85, -2.37, 0.0, 6.0, 0.0, -11.6, -7.69, -9.39, -10.79, -9.96, -6.65, -4.39, -3.32, -2.06, -2.06, -12.11, -12.51, -12.51, -12.28, -12.28, -12.28, -12.03, -11.88, -11.5, -11.07, -11.07, -10.59, -10.7, -10.7, -9.78, -9.8, -9.17, -8.82, -8.01, -7.63, -6.76, -6.9, -6.51, -5.46, -2.35, 0.0, 0.0, 14.75, 13.19, 12.79, 12.33, 12.14, 10.91, 10.96, 8.94, 9.39, 9.83, 10.73, 7.27, 6.95, 6.95, 7.44, 7.27, 6.32, 8.18, 9.33, 9.75, 9.75, 9.75, 10.28, 10.28, 10.73, 11.18, 10.73, 9.6, 9.2, 9.2, 10.18, 11.45, 12.3, 11.87, 10.0, 9.6, 9.6, 7.59, 7.27, 6.45, 3.68, 4.38, 17.43, 15.49, 14.31, 15.33, 19.93, 17.88, 18.78, 17.19, -0.0, -13.91, -15.62, -17.35, -17.43, -15.77, -13.03, -10.12, -6.97, 0.0, 0.0, -4.24, -6.2, -11.8, -12.72, -11.5, -9.17, -8.3, -6.7, -5.6, -5.6, -12.11, -12.51, -12.51, -12.28, -12.28, -12.28, -12.03, -11.88, -11.88, -11.62, -11.07, -10.94, -10.94, -10.7, -10.09, -9.48, -9.8, -9.48, -8.44, -7.54, -6.79, -6.76, -6.0, -4.24, -1.66, -2.35, -4.81, 0.0, 10.75, 13.03, 13.19, 11.64, 10.94, 9.77, 9.6, 9.2, 8.8, 8.55, 6.95, 6.95, 8.18, 9.33, 8.18, 8.55, 9.75, 9.2, 9.6, 9.2, 9.2, 10.28, 10.28, 10.28, 10.28, 10.28, 9.2, 9.2, 9.2, 9.6, 10.0, 7.9, 10.8, 8.22, 7.59, 0.0, 4.8, 3.11, 2.28, 3.25, 5.4, 15.65, 14.22, 11.8, 15.74, 21.04, 17.2, 16.12, 16.6, 18.78, -0.0, -0.0, -12.33, -17.88, -17.88, -12.72, -10.73, -10.01, -9.17, -3.14, -3.25, -3.47, -10.12, -12.71, -11.18, -9.82, -9.17, -9.17, -8.85, -8.85, -12.11, -12.51, -12.51, -12.28, -12.28, -12.28, -12.03, -12.03, -11.88, -11.62, -11.44, -11.16, -10.94, -10.7, -10.35, -10.58, -9.46, -9.5, -8.19, -7.02, -6.31, -7.32, -6.98, -6.65, -4.65, -6.2, -12.96, 0.0, 11.99, 12.39, 11.88, 10.79, 10.19, 9.66, 8.82, 8.02, 7.68, 7.06, 6.98, 7.59, 6.95, 8.23, 9.3, 10.6, 11.03, 9.6, 9.6, 9.2, 9.2, 10.28, 10.28, 10.28, 10.28, 10.28, 9.2, 9.2, 7.27, 7.9, 8.53, 8.22, 8.22, 8.22, 0.0, 0.0, 0.0, 0.0, 0.0, 2.02, 2.1, 7.93, 12.64, 14.22, 16.44, 17.39, 12.01, 11.06, 11.38, 14.18, 16.66, 17.43, 7.6, -7.8, -15.61, -12.52, -13.15, -12.45, -11.99, -10.79, -7.44, -4.24, 0.0, -12.72, -11.91, -10.68, -10.82, -10.12, -11.09, -11.09, -12.11, -12.51, -12.51, -12.28, -12.28, -12.28, -12.03, -12.03, -11.88, -11.62, -11.62, -11.16, -10.94, -10.94, -10.7, -10.06, -9.77, -9.73, -9.69, -8.85, -8.15, -9.27, -9.73, -9.8, -9.17, -9.17, -0.0, 9.48, 11.53, 10.79, 11.2, 10.73, 10.04, 8.53, 7.56, 6.44, 5.95, 5.95, 5.21, 4.6, 5.32, 5.95, 8.73, 10.96, 11.18, 11.62, 9.2, 9.2, 9.2, 9.83, 9.83, 10.28, 10.73, 11.18, 9.33, 8.18, 10.0, 4.8, 0.0, 0.0, 0.0, 0.0, 0.0, 0.0, 7.27, 4.6, 3.25, 2.71, 3.82, 3.25, 4.75, 3.23, 1.85, 2.19, 2.09, 2.05, 2.65, 8.28, 15.69, 16.99, 15.34, 7.4, -0.0, -9.48, -13.86, -13.41, -13.41, -12.3, -10.79, -3.96, 0.0, 0.0, -12.96, -12.71, -11.88, -12.16, -13.19, -13.19, -12.11, -12.51, -12.51, -12.28, -12.28, -12.28, -12.03, -12.03, -12.42, -11.99, -11.99, -11.16, -11.16, -10.94, -10.7, -10.41, -10.12, -10.09, -10.04, -10.03, -10.3, -11.25, -12.02, -11.25, -10.43, -6.4, 9.8, 5.8, 8.53, 10.4, 9.67, 9.3, 8.22, 8.22, 7.44, 5.54, 5.0, 4.8, 4.8, 3.92, 4.4, 6.2, 7.9, 11.21, 11.62, 12.07, 9.83, 9.2, 9.2, 10.28, 9.83, 10.28, 10.73, 11.18, 10.18, 8.23, 7.9, 0.0, 0.0, 0.0, 0.0, 0.0, 0.0, 0.0, 7.27, 9.6, 7.59, 5.4, 6.67, 4.87, 4.5, 0.0, -1.66, -3.81, -3.86, -4.23, 0.0, 3.51, 13.23, 14.42, 15.65, 13.02, 3.58, -0.0, -6.2, -11.99, -13.41, -11.99, -11.16, -6.7, -3.04, 0.0, 0.0, -13.41, -13.44, -13.19, -14.31, -14.31, -12.11, -12.51, -12.51, -12.28, -12.28, -12.28, -12.03, -12.42, -12.42, -11.99, -11.99, -11.52, -11.16, -10.94, -10.94, -11.01, -10.73, -10.47, -11.09, -11.52, -10.87, -11.57, -11.97, -11.53, -10.12, -7.93, 0.0, 0.0, 8.53, 10.8, 10.8, 9.67, 8.22, 6.97, 7.26, 6.2, 4.58, 4.58, 4.4, 5.0, 6.2, 6.98, 8.73, 11.45, 11.18, 10.73, 10.73, 9.33, 9.75, 10.28, 10.28, 10.73, 10.73, 11.18, 10.18, 9.3, 6.97, 3.96, -8.22, -10.73, -7.27, -7.59, 0.0, 0.0, 7.9, 7.9, 8.22, 6.7, 7.78, 6.6, 5.81, 0.0, -13.14, -22.9, -6.95, -6.44, -5.37, 0.0, 8.0, 12.87, 14.53, 16.54, 11.38, -0.0, -0.0, -9.48, -13.41, -12.79, -10.43, -8.53, -7.24, -3.25, 0.0, 0.0, -10.12, -11.9, -13.99, -13.99, -12.11, -12.11, -12.11, -12.28, -12.28, -12.28, -12.03, -12.42, -12.42, -11.99, -11.99, -11.72, -11.52, -10.94, -10.94, -11.01, -11.09, -11.09, -11.1, -11.49, -10.84, -9.97, -10.73, -10.94, -10.85, -9.8, -9.8, -9.8, 0.0, 12.52, 8.53, 8.22, 6.45, 5.2, 6.97, 5.98, 5.98, 5.98, 7.26, 7.26, 7.26, 9.08, 9.67, 10.68, 11.51, 11.18, 10.73, 8.91, 9.11, 10.28, 10.28, 10.73, 10.73, 11.18, 10.73, 10.18, 8.94, 7.78, 0.0, -9.39, -9.39, -9.2, 0.0, 0.0, 11.18, 7.9, 5.2, 3.53, 6.45, 4.65, 6.2, 17.88, -0.0, -0.0, -8.05, -8.4, -6.94, -3.69, 0.0, 9.17, 11.09, 14.53, 15.65, 15.65, 10.43, -0.0, 0.0, 0.0, 0.0, -0.0, -11.6, -11.16, -4.52, 0.0, 0.0, -6.4, -10.12, -10.12, -11.99, -11.99, -11.99, -12.51, -12.28, -12.28, -12.03, -12.42, -12.42, -11.99, -11.99, -11.72, -11.52, -11.52, -11.23, -11.23, -11.36, -11.36, -11.1, -11.1, -10.48, -9.48, -9.36, -10.73, -10.94, -10.59, -10.3, -11.53, 0.0, 0.0, 8.85, 5.4, 3.68, 6.2, 5.0, 5.0, 6.71, 6.71, 8.22, 8.22, 9.08, 9.97, 10.4, 10.4, 11.18, 10.75, 12.14, 10.84, 10.73, 11.18, 11.62, 11.18, 10.73, 10.73, 10.28, 9.75, 9.2, 9.66, 5.8, -11.62, -8.94, -9.39, 0.0, 0.0, 11.18, 10.8, 8.53, 5.6, 3.53, 0.0, 2.19, 11.41, -0.0, -0.0, -0.0, -9.48, -13.41, -9.17, 0.0, 6.8, 7.69, 11.44, 13.7, 14.03, 14.31, 14.75, 14.75, 14.75, 14.42, 7.2, -12.39, -13.41, -12.39, -6.2, -6.4, -6.4, -9.8, -9.8, -11.99, -11.99, -11.99, -11.99, -12.28, -12.28, -12.03, -12.03, -12.42, -12.16, -11.99, -11.72, -11.52, -11.52, -11.6, -11.6, -11.6, -11.01, -11.01, -10.76, -10.47, -9.8, -9.48, -10.62, -11.12, -11.12, -10.73, -10.47, -9.48, 0.0, -0.0, -0.0, -0.0, 3.68, 3.53, 5.95, 6.2, 7.9, 8.94, 9.3, 10.79, 11.03, 10.6, 10.6, 10.6, 10.18, 10.79, 10.52, 9.7, 9.83, 10.73, 12.52, 10.73, 10.73, 10.28, 10.28, 9.75, 8.8, 9.67, 8.85, 0.0, -6.64, -0.0, 10.73, 11.62, 11.45, 10.04, 6.7, 2.93, 0.0, 0.0, 7.0, -0.0, -4.56, -4.56, -4.99, -8.0, 0.0, 0.0, 0.0, 6.2, 9.8, 11.99, 12.45, 13.7, 14.31, 14.75, 13.99, 14.42, 11.06, -0.0, -12.27, -14.3, -13.19, -9.48, -9.8, -9.8, -9.8, -11.99, -11.99, -11.99, -11.99, -12.14, -12.14, -12.28, -12.03, -12.03, -12.27, -11.99, -11.72, -11.72, -11.52, -11.81, -11.23, -11.23, -11.23, -11.01, -11.09, -10.47, -10.52, -10.22, -9.97, -10.99, -11.12, -10.79, -10.55, -10.37, -9.17, 0.0, -0.0, -0.0, -0.0, 5.2, 5.0, 7.59, 8.93, 10.0, 10.0, 10.96, 11.46, 11.02, 10.96, 10.52, 10.52, 11.28, 9.97, 9.64, 9.64, 11.18, 11.18, 12.52, 12.07, 10.84, 10.73, 10.28, 9.33, 8.55, 9.67, 5.4, 0.0, 0.0, 9.83, 11.18, 11.45, 10.41, 6.94, 0.0, 0.0, -2.37, 0.0, 12.01, -0.0, -7.49, -7.25, -4.3, -0.0, 0.0, 0.0, 0.0, 12.39, 14.42, 12.39, 11.44, 13.99, 15.2, 14.75, 14.75, 15.2, 16.99, -13.76, -14.75, -15.65, -13.44, -11.9, -9.8, -9.8, -11.99, -11.99, -11.99, -11.75, -11.75, -12.14, -11.88, -11.88, -11.88, -12.27, -11.99, -11.99, -11.72, -11.52, -11.52, -11.44, -11.23, -11.23, -11.01, -11.32, -11.09, -10.82, -9.85, -10.3, -10.47, -10.62, -10.79, -10.37, -10.12, -9.17, -11.6, -11.2, -12.52, 0.0, 0.0, 11.62, 11.62, 11.18, 10.73, 10.28, 11.18, 11.62, 11.46, 10.73, 10.28, 11.18, 11.18, 9.97, 9.54, 9.54, 10.52, 10.96, 10.28, 10.14, 10.96, 10.52, 10.73, 10.28, 8.4, 7.27, 6.7, 6.2, 7.9, 10.73, 12.52, 11.03, 8.53, 3.14, 0.0, 0.0, -2.54, 0.0, 3.58, 16.99, 6.36, 5.35, -0.0, -3.86, -0.0, -0.0, 8.22, 12.3, 14.3, 12.3, 13.44, 13.7, 14.53, 13.02, 13.59, 14.75, 15.2, 16.54, -14.51, -16.54, -15.2, -13.88, -13.88, -13.88, -11.6, -11.6, -11.99, -11.75, -11.75, -11.75, -11.88, -11.88, -11.88, -11.88, -11.99, -11.99, -11.72, -11.52, -11.52, -11.44, -11.44, -10.87, -10.96, -10.96, -10.73, -10.47, -10.18, -10.24, -9.92, -10.47, -10.23, -10.23, -9.5, -9.62, -8.85, -8.53, -8.53, -8.53, 0.0, 0.0, 8.22, 10.0, 10.6, 10.41, 10.96, 11.46, 10.6, 9.75, 9.13, 10.73, 7.27, 9.75, 9.54, 9.97, 10.96, 10.73, 10.73, 10.28, 10.58, 11.4, 11.18, 10.73, 9.2, 7.27, 5.0, 5.0, 7.9, 11.71, 11.28, 11.2, 3.25, 0.0, 0.0, 0.0, 0.0, 0.0, 0.0, 6.2, 14.75, 19.29, 14.22, -0.0, -2.72, -0.0, 3.53, 9.3, 13.01, 12.52, 11.87, 12.39, 11.52, 11.06, 13.99, 14.75, 14.75, 15.65, -0.0, -14.13, -16.54, -15.65, -14.9, -14.9, -11.47, -11.47, -11.47, -11.61, -11.61, -11.5, -11.5, -11.88, -11.88, -11.88, -11.62, -11.99, -11.52, -11.52, -11.52, -11.44, -10.87, -11.16, -10.96, -10.96, -10.73, -10.12, -10.12, -10.18, -9.89, -9.96, -9.64, -9.69, -9.42, -8.85, -8.53, -8.53, -8.53, -6.7, 0.0, 0.0, 5.2, 7.9, 9.3, 9.6, 10.38, 10.38, 10.6, 11.21, 11.21, 9.2, 9.39, 6.95, 9.97, 9.97, 11.18, 10.73, 10.28, 10.28, 10.73, 10.58, 11.71, 11.28, 9.6, 8.94, 7.9, 7.9, 10.8, 12.14, 10.8, 7.78, 5.15, -2.45, -4.32, -4.32, -2.28, -2.43, -2.28, 0.0, 11.9, 18.33, 21.9, 13.59, -0.0, -4.12, -0.0, 7.27, 12.14, 12.07, 12.58, 13.01, 11.99, 13.19, 14.9, 14.99, 14.55, 14.99, 15.65, -7.2, -16.48, -16.99, -16.54, -16.54, -11.47, -11.47, -11.47, -11.22, -11.61, -11.34, -11.34, -11.34, -11.88, -11.88, -11.62, -11.44, -11.52, -11.52, -11.52, -11.44, -10.87, -10.96, -10.59, -10.59, -10.37, -10.37, -10.12, -9.84, -9.53, -9.56, -9.59, -9.64, -8.85, -8.24, -8.15, -6.7, -6.21, -4.32, -2.82, 0.0, 2.82, 5.0, 7.9, 8.58, 8.58, 9.2, 9.58, 9.6, 10.0, 9.3, 10.6, 10.28, 10.28, 10.38, 10.38, 9.55, 10.08, 10.08, 10.41, 10.41, 9.64, 10.96, 10.79, 10.0, 9.6, 10.0, 11.71, 11.28, 8.53, 7.51, 4.98, 0.0, -8.94, -6.95, -6.7, -4.98, -3.16, 0.0, 0.0, 19.22, 19.67, 17.43, 12.96, -0.0, -0.0, 3.96, 8.22, 12.52, 11.62, 14.3, 13.86, 13.88, 14.47, 14.47, 14.47, 14.53, 14.53, -0.0, -13.39, -17.1, -17.43, -17.43, -11.08, -11.08, -11.22, -11.22, -11.22, -11.34, -11.34, -11.34, -11.34, -11.07, -11.44, -11.44, -11.16, -11.16, -10.94, -10.87, -10.3, -10.59, -10.59, -10.37, -10.37, -10.12, -10.12, -9.84, -9.53, -9.56, -9.17, -8.85, -8.32, -7.68, -7.51, -7.28, -5.99, -3.82, -1.91, 0.0, 0.0, 4.15, 3.98, 5.52, 7.59, 7.59, 8.38, 9.2, 7.59, 9.66, 9.66, 8.93, 8.55, 8.73, 8.38, 7.27, 7.27, 9.6, 9.6, 9.6, 9.2, 11.28, 10.52, 10.84, 10.0, 10.4, 11.71, 8.22, 6.7, 6.45, 5.2, 0.0, -5.4, -8.18, -6.79, -5.0, 0.0, 0.0, -14.86, 5.65, 16.05, 14.75, 16.54, 13.91, -0.0, -6.08, -0.0, 9.48, 13.86, 14.3, 14.03, 13.88, 13.57, 14.75, 14.31, 13.7, 13.03, 13.99, -11.06, -15.61, -16.99, -16.99, -10.94, -10.94, -10.68, -10.68, -10.79, -10.79, -10.96, -11.34, -11.07, -11.07, -11.07, -11.07, -11.44, -10.59, -10.59, -10.3, -10.3, -10.37, -10.01, -9.77, -9.77, -10.12, -9.84, -9.5, -9.53, -9.17, -8.85, -8.53, -8.54, -7.72, -7.68, -7.51, -5.6, -4.75, -1.71, 0.0, 0.0, 1.84, 3.39, 4.8, 4.6, 6.7, 6.7, 6.7, 5.52, 5.75, 6.2, 6.87, 6.87, 6.98, 6.7, 6.42, 7.59, 6.44, 6.17, 8.23, 7.9, 9.3, 10.18, 9.97, 10.8, 9.67, 8.22, 6.2, 5.2, 2.71, 2.49, 3.68, 0.0, 0.0, -3.25, 0.0, 0.0, 0.0, -0.0, 3.86, 9.48, 10.6, 13.86, 16.96, 5.8, -5.65, -11.06, -10.12, -0.0, 15.2, 14.84, 12.27, 12.79, 13.86, 13.86, 13.88, 13.7, 13.03, 0.0, -14.84, -15.61, -15.61, -10.55, -10.55, -10.68, -10.68, -10.41, -10.79, -10.79, -10.51, -10.51, -10.87, -10.87, -10.87, -10.87, -10.59, -10.01, -9.71, -9.71, -9.12, -9.77, -9.5, -9.17, -9.17, -9.17, -8.85, -8.85, -8.49, -8.46, -8.01, -7.64, -7.78, -7.65, -7.24, -6.4, -4.24, -2.93, 0.0, 0.0, 1.58, 3.07, 2.95, 4.05, 4.8, 4.8, 4.8, 5.0, 4.8, 4.8, 4.6, 4.8, 4.8, 4.6, 5.29, 5.75, 5.52, 5.29, 5.52, 5.52, 6.44, 7.27, 8.93, 7.59, 8.93, 8.22, 5.95, 6.2, 2.71, 2.6, 2.02, 2.82, 3.14, 4.48, 4.15, 0.0, 0.0, -0.0, 4.65, 3.58, 8.22, 11.99, 14.3, 11.38, -0.0, -14.79, -14.79, -11.7, -0.0, 16.09, 4.81, 6.4, 13.41, 12.96, 13.41, 13.44, 13.28, 12.79, -10.75, -12.65, -12.65, -10.3, -10.3, -10.3, -10.68, -10.41, -10.41, -10.51, -10.51, -10.51, -10.51, -10.51, -10.51, -10.3, -10.01, -9.42, -9.37, -9.12, -8.84, -8.84, -9.17, -9.17, -8.85, -8.85, -8.85, -8.49, -8.49, -8.09, -7.63, -7.51, -6.08, -5.98, -5.64, -5.2, -4.24, -2.93, -1.44, 0.0, 0.0, 1.39, 2.6, 2.6, 4.05, 4.23, 4.23, 4.23, 4.05, 2.82, 2.82, 2.95, 3.39, 3.39, 3.53, 3.39, 3.25, 3.82, 3.82, 3.82, 3.65, 3.82, 4.8, 8.85, 7.9, 7.9, 5.0, 5.7, 3.39, 3.39, 2.6, 3.68, 3.04, 6.44, 3.04, 0.0, -4.81, 0.0, 8.2, -0.0, -0.0, -0.0, -0.0, 0.0, 0.0, -16.54, -16.99, -14.79, -7.2, -16.09, 0.0, 0.0, 9.48, 12.52, 12.52, 12.52, 13.01, 10.73, 14.75, -13.59, -13.59, -10.3, -10.3, -10.3, -10.13, -9.86, -10.23, -9.94, -9.94, -9.94, -10.3, -9.94, -9.94, -9.94, -9.42, -9.37, -9.12, -8.84, -8.84, -8.84, -8.84, -8.85, -8.85, -8.52, -8.15, -8.15, -8.15, -7.73, -7.63, -7.12, -6.56, -5.4, -4.81, -4.32, -3.34, -2.28, -1.28, 0.0, 0.0, 1.23, 1.23, 2.6, 2.49, 3.61, 3.77, 2.49, 2.49, 2.39, 2.49, 2.82, 2.95, 2.95, 3.07, 3.39, 3.25, 3.39, 3.25, 3.11, 3.11, 3.11, 1.69, 4.4, 6.45, 7.59, 5.0, 5.0, 5.0, 3.39, 2.71, 2.71, 2.37, 2.45, 0.0, 0.0, -2.21, 0.0, 0.0, 0.0, -12.96, -7.6, -0.0, -0.0, 0.0, 0.0, -15.2, -11.06, -13.19, -14.75, -4.66, 0.0, 8.85, 12.52, 12.52, 12.52, 12.52, 11.6, 10.37, 0.0, 0.0, -9.76, -9.76, -10.13, -10.13, -9.86, -9.86, -9.94, -9.94, -9.94, -9.94, -9.94, -9.71, -9.08, -8.82, -8.78, -8.78, -8.53, -8.53, -8.21, -8.21, -8.21, -8.21, -8.15, -8.15, -7.73, -7.73, -7.28, -7.28, -6.77, -6.21, -4.93, -4.33, -3.42, -2.71, -2.0, -1.01, 0.0, 0.0, 0.0, 1.23, 2.33, 2.33, 3.25, 2.13, 2.13, 1.09, 1.22, 1.28, 1.28, 1.33, 1.52, 1.52, 1.45, 1.52, 1.69, 1.62, 1.62, 1.62, 1.62, 1.69, 1.69, 3.32, 3.39, 5.7, 5.7, 5.0, 3.25, 2.6, 2.71, 2.71, 0.0, 0.0, 0.0, 0.0, 0.0, 0.0, 0.0, 0.0, -0.0, -0.0, -0.0, -0.0, 0.0, 0.0, 0.0, -12.96, -9.17, 0.0, 0.0, 0.0, 9.17, 12.96, 12.96, 12.96, 11.87, 10.79, 9.8, 9.8, -9.76, -9.76, -9.76, -10.13, -9.86, -9.86, -9.59, -9.59, -9.71, -9.37, -9.08, -9.08, -8.82, -8.5, -8.5, -8.22, -8.53, -8.53, -8.21, -8.21, -8.21, -7.85, -7.85, -7.85, -7.46, -7.46, -7.02, -6.53, -6.53, -5.99, -5.4, -4.75, -3.32, -2.61, -1.7, -0.93, -0.93, 0.0, 0.0, 0.0, 1.07, 2.1, 2.23, 2.71, 2.04, 1.09, 1.14, 1.28, 1.28, 1.33, 1.52, 1.52, 1.45, 1.52, 1.39, 1.39, 1.62, 1.54, 1.62, 1.62, 0.0, 0.0, 0.0, 2.39, 5.95, 5.0, 3.11, 0.0, 0.0, 0.0, 0.0, 0.0, 0.0, 0.0, -2.97, -5.65, -3.36, 0.0, 15.8, 10.0, 5.94, -0.0, -0.0, 0.0, 0.0, 0.0, 0.0, 0.0, 0.0, 0.0, 0.0, 9.48, 13.41, 13.41, 12.96, 11.6, 11.16, 9.48, -9.76, -9.76, -9.76, -9.76, -9.86, -9.86, -9.37, -9.37, -9.37, -9.37, -9.08, -8.5, -8.5, -8.5, -8.22, -8.22, -8.22, -8.21, -8.21, -7.9, -7.54, -7.54, -7.54, -7.14, -7.14, -6.7, -7.02, -6.53, -5.99, -5.99, -5.4, -4.75, -4.06, -3.19, -2.61, -1.7, -0.93, -0.93, 0.0, 0.0, 0.0, 1.07, 1.02, 2.82, 2.83, 1.93, 1.14, 0.0, 0.0, 0.0, 0.0, 1.45, 1.45, 0.0, 0.0, 0.0, 0.0, 0.0, 0.0, 0.0, 0.0, 0.0, 0.0, 2.97, 3.11, 4.8, 0.0, 0.0, 0.0, 0.0, 0.0, 0.0, 0.0, 0.0, -4.73, -20.39, -12.27, 0.0, 6.22, 9.0, 5.37, 6.8, 10.75, 14.75, 13.86, 6.0, 4.38, 0.0, 0.0, 0.0, 0.0, 0.0, 0.0, 13.41, 13.41, 11.6, 9.48, 11.16, -10.02, -10.02, -9.76, -9.76, -9.5, -9.3, -9.37, -9.37, -9.37, -9.37, -8.5, -8.5, -8.5, -8.22, -8.22, -8.22, -8.22, -7.91, -8.21, -7.9, -7.54, -7.54, -7.54, -7.14, -7.14, -6.7, -6.7, -6.21, -5.68, -5.99, -5.4, -4.75, -4.06, -3.32, -3.19, -2.61, -1.7, -0.93, 0.0, 0.0, 0.0, 0.0, 1.02, 0.98, 2.52, 1.76, 1.07, 1.18, 1.28, 1.28, 1.39, 1.39, 1.33, 0.0, 0.0, 0.0, 0.0, 0.0, 0.0, 0.0, 0.0, 0.0, 0.0, 0.0, 0.0, 0.0, 3.11, 3.25, 3.39, 0.0, 0.0, -2.82, 0.0, 0.0, 0.0, -25.45, -23.42, -11.38, -0.0, 4.38, 6.0, 9.48, 13.41, 13.41, 9.17, 4.38, 0.0, 0.0, 0.0, 0.0, 0.0, 0.0, 0.0, 0.0, 0.0, 0.0, 5.8, 9.48, -10.02, -10.02, -9.76, -9.76, -9.3, -9.3, -9.02, -9.02, -9.02, -8.78, -8.5, -8.5, -8.22, -8.22, -7.9, -8.22, -7.91, -7.91, -7.91, -7.61, -7.54, -7.54, -7.14, -7.14, -7.14, -6.7, -6.7, -6.21, -5.68, -5.68, -5.1, -4.32, -3.91, -3.91, -3.19, -2.44, -1.77, -1.7, -0.93, 0.0, 0.0, 0.0, 0.0, 0.0, 0.0, 1.23, 1.84, 2.02, 2.13, 2.13, 1.04, 1.16, 1.16, 0.0, 0.0, 0.0, 0.0, 0.0, 0.0, 0.0, 0.0, 0.0, 0.0, 0.0, 0.0, 0.0, 4.4, 4.8, 3.25, 0.0, 0.0, -2.82, -3.14, 0.0, 0.0, -0.0, -13.59, -15.13, -4.38, -0.0, -0.0, 14.75, 13.86, 9.48, 4.24, 0.0, 0.0, 0.0, 0.0, 0.0, 0.0, 0.0, 0.0, 0.0, 0.0, 0.0, 0.0, 0.0, -9.38, -9.38, -9.38, -9.58, -9.58, -9.3, -9.3, -9.02, -8.78, -8.78, -8.5, -8.22, -8.22, -8.22, -7.9, -7.9, -7.91, -7.91, -7.91, -7.26, -7.26, -7.26, -6.87, -7.14, -6.4, -6.4, -6.21, -6.21, -5.68, -5.68, -4.92, -4.32, -4.32, -3.68, -3.19, -2.44, -2.44, -1.77, -0.86, -0.86, 0.0, 0.0, 0.0, 0.0, 0.0, 0.0, 0.85, 1.76, 1.68, 1.84, 0.93, 0.99, 0.99, 0.0, 0.0, 0.0, 0.0, 0.0, 0.0, 0.0, -1.33, -1.26, 0.0, 0.0, 0.0, 0.0, 0.0, 0.0, 0.0, 0.0, -2.82, -4.15, -3.14, -2.45, 0.0, 16.09, -0.0, -0.0, -8.91, -6.22, -0.0, 17.88, 12.64, 4.95, 0.0, 0.0, 0.0, 0.0, 0.0, 0.0, 0.0, 0.0, -4.38, -9.48, 0.0, 0.0, 0.0, 0.0, -9.21, -9.21, -9.21, -9.21, -9.58, -9.3, -9.3, -9.08, -8.78, -8.78, -8.5, -8.22, -8.22, -8.22, -7.9, -7.6, -7.6, -7.91, -7.61, -7.26, -7.26, -6.87, -6.87, -6.87, -6.16, -6.16, -5.7, -5.7, -5.2, -5.2, -4.92, -4.32, -4.32, -3.68, -2.99, -3.19, -2.44, -1.64, -1.77, -0.86, -0.86, 0.0, 0.0, 0.0, 0.0, 0.0, 0.0, 0.0, 0.85, 0.81, 0.81, 0.0, 0.0, 0.0, 0.0, 0.0, 0.0, -1.0, -1.05, -1.26, -1.26, -1.26, -1.26, 0.0, 0.0, 4.4, 0.0, 0.0, 0.0, 0.0, -2.71, -3.98, -3.68, -4.1, 0.0, 5.64, 10.73, 13.14, 13.79, 19.28, 17.07, 18.95, 11.8, 4.45, 4.66, 4.38, 4.52, 3.47, 2.81, 0.0, 0.0, 0.0, 0.0, -13.41, -12.96, 0.0, 0.0, 0.0, -9.21, -9.21, -9.21, -9.21, -9.21, -9.21, -9.21, -8.94, -8.73, -8.78, -8.78, -8.22, -8.22, -7.9, -7.9, -7.6, -7.6, -7.6, -7.61, -7.26, -7.26, -6.87, -6.87, -6.87, -6.45, -6.16, -5.7, -5.7, -5.2, -5.2, -4.66, -4.08, -4.32, -3.68, -2.99, -3.19, -2.44, -2.44, -1.77, -1.7, -0.86, -0.89, -0.89, -0.89, 0.0, 0.0, 0.0, 0.0, 0.0, 0.0, 0.0, 0.0, 0.0, 0.0, 0.0, 0.0, -0.94, -1.0, -1.0, -1.05, -1.2, -2.46, -2.46, 0.0, 0.0, 4.4, 0.0, 0.0, 0.0, -2.6, -3.68, -3.82, -3.53, -3.44, 0.0, 4.52, 6.34, 6.44, 10.2, 15.33, 18.62, 18.62, 13.34, 18.78, 15.19, 15.2, 13.99, 10.43, 6.6, 3.25, 0.0, 0.0, 0.0, -9.17, -12.96, -12.52, -12.52, -12.52, -9.21, -9.21, -9.21, -9.21, -9.21, -9.21, -9.21, -8.94, -8.73, -8.45, -8.45, -8.52, -8.22, -7.9, -7.9, -7.9, -7.6, -7.6, -7.6, -7.26, -7.26, -6.87, -6.87, -6.45, -6.45, -6.45, -5.98, -5.7, -5.2, -5.2, -4.66, -4.92, -4.32, -3.68, -3.68, -3.19, -3.19, -2.44, -2.61, -1.77, -1.7, -1.84, -0.93, -0.89, -0.89, -0.97, 0.0, 0.0, 0.0, 0.0, 0.0, 0.0, 0.0, 0.0, 0.0, -0.94, -0.94, -0.89, -1.95, -1.95, -2.06, -2.33, -2.46, -1.54, 0.0, 0.0, 0.0, 0.0, 0.0, -2.02, -3.82, -3.98, -1.91, -1.77, 0.0, 1.96, 4.18, 3.9, 6.28, 10.19, 14.13, 16.35, 27.14, 5.53, 12.07, 14.79, 16.54, 14.39, 10.12, 6.2, 0.0, 0.0, 0.0, -8.85, -12.52, -12.07, -12.07, -12.07, -9.21, -9.21, -9.21, -9.21, -9.21, -9.21, -9.21, -9.01, -8.73, -8.73, -8.45, -8.19, -7.9, -7.9, -7.9, -7.9, -7.6, -7.6, -7.6, -7.32, -7.26, -6.87, -6.87, -6.45, -6.45, -6.45, -5.98, -5.98, -5.47, -5.47, -4.92, -4.92, -4.32, -4.32, -3.91, -3.91, -3.19, -3.19, -2.61, -2.51, -1.7, -1.84, -1.84, -0.93, -0.97, -0.97, -0.97, -0.93, 0.0, 0.0, 0.0, 0.0, -0.93, -0.89, -0.85, -0.94, -0.94, -1.75, -1.75, -1.95, -1.95, -2.06, -3.35, -3.32, -1.75, 0.0, 0.0, 0.0, 0.0, 0.0, -2.02, 0.0, 0.0, 0.0, 0.0, 0.0, 0.0, 1.89, 3.9, 5.81, 7.63, 16.2, 12.99, -0.0, 11.96, 15.72, 15.34, 14.75, 12.39, 0.0, 0.0, 0.0, 0.0, -12.07, -12.07, -12.07, -12.07, -12.07, -9.21, -9.21, -9.21, -9.21, -9.21, -9.01, -9.01, -9.01, -8.73, -8.73, -8.73, -8.45, -8.19, -7.9, -7.9, -7.9, -7.6, -7.6, -7.6, -7.6, -6.98, -7.26, -6.87, -6.87, -6.45, -6.45, -5.98, -5.98, -5.47, -5.47, -4.92, -4.92, -4.32, -4.32, -3.91, -3.91, -3.19, -3.29, -2.51, -2.51, -2.71, -1.84, -1.84, -1.84, -2.0, -0.97, -0.97, -0.93, -0.93, -0.93, -0.89, -0.98, -0.93, -0.89, -0.89, -1.84, -1.84, -1.75, -1.75, -2.54, -2.67, -2.83, -3.35, -4.6, -3.32, 0.0, 0.0, 0.0, 0.0, 0.0, 0.0, 0.0, 0.0, -2.37, 0.0, 0.0, 0.0, 0.0, 4.05, 6.16, 6.52, 9.0, -8.34, -0.0, 10.57, 16.37, 14.42, 12.96, 0.0, 0.0, 0.0, 0.0, 0.0, 0.0, -11.18, -10.73, -10.73, -10.73, -9.21, -9.21, -8.84, -8.65, -8.65, -8.65, -8.65, -8.65, -8.65, -8.73, -8.73, -8.73, -8.19, -8.19, -7.9, -7.9, -7.6, -7.6, -7.6, -7.6, -7.27, -6.98, -6.61, -6.61, -6.2, -6.2, -5.75, -5.98, -5.98, -5.47, -5.47, -4.92, -4.92, -4.58, -4.58, -3.91, -4.01, -3.29, -3.29, -2.51, -2.71, -2.71, -1.84, -1.84, -2.0, -2.0, -1.92, -0.97, -0.93, -0.93, -0.89, -0.98, -0.93, -1.75, -1.75, -1.84, -1.84, -1.75, -2.54, -2.54, -2.54, -2.67, -3.17, -3.8, -4.37, -2.17, 0.0, 0.0, 0.0, -2.39, -2.39, -2.49, -2.19, -2.37, -2.45, -2.54, 0.0, 0.0, 2.35, 4.66, 7.0, 7.4, -0.0, 4.12, 16.11, 17.1, 10.73, 10.28, 0.0, -8.85, -8.53, 0.0, 0.0, 0.0, -9.83, -9.39, -9.39, -9.39, -8.84, -8.65, -8.65, -8.65, -8.65, -8.65, -8.65, -8.65, -8.65, -8.38, -8.38, -8.38, -8.19, -8.19, -8.19, -7.9, -7.6, -7.6, -7.6, -7.6, -7.27, -7.27, -6.61, -6.61, -6.2, -6.2, -6.2, -5.75, -5.75, -5.26, -5.47, -4.92, -5.2, -4.4, -4.4, -3.76, -4.01, -3.29, -3.29, -2.51, -2.51, -2.71, -2.71, -2.71, -2.0, -2.0, -1.92, -1.92, -1.84, -1.84, -1.84, -1.76, -1.84, -1.75, -1.75, -1.84, -1.84, -2.54, -2.54, -2.54, -2.54, -2.4, -2.67, -3.6, -4.14, -2.17, 0.0, -2.28, -2.28, -4.4, -5.46, -5.46, -4.4, -2.19, 0.0, 0.0, 0.0, 0.0, 2.72, 2.43, 4.66, 6.6, 13.99, 15.02, 20.95, 17.81, 14.3, 10.73, 0.0, -11.18, -8.22, -8.22, -11.18, -10.73, -10.28, -8.8, -8.8, -8.8, -8.65, -8.65, -8.65, -8.65, -8.65, -8.65, -8.65, -8.65, -8.65, -8.38, -8.15, -8.15, -8.15, -7.86, -8.19, -8.19, -7.6, -7.6, -7.6, -7.27, -7.27, -7.27, -6.9, -6.9, -6.61, -6.2, -6.2, -5.75, -5.75, -5.26, -5.26, -5.0, -5.0, -4.4, -4.4, -4.01, -4.01, -3.29, -3.29, -3.29, -2.51, -2.71, -2.71, -2.71, -2.71, -2.94, -1.92, -1.92, -1.92, -1.84, -1.84, -1.76, -1.93, -2.57, -2.57, -2.69, -2.69, -2.54, -2.54, -2.54, -2.54, -3.09, -3.4, -4.22, -4.56, -1.73, -2.28, -2.28, -4.2, -4.4, -7.27, -7.27, -7.27, -6.95, -2.19, 0.0, 0.0, 0.0, 0.0, 0.0, 2.81, 6.4, 14.3, 14.57, 24.39, 19.51, 15.78, 12.07, 7.59, -10.73, -7.9, -7.9, -10.4, -11.18, -10.73, -8.8, -8.8, -8.8, -8.65, -8.65, -8.65, -8.65, -8.65, -8.65, -8.65, -8.65, -8.44, -8.15, -8.15, -8.15, -8.15, -8.15, -7.86, -7.59, -7.59, -7.3, -7.3, -6.98, -7.27, -7.27, -6.9, -6.9, -6.9, -6.5, -6.5, -5.75, -5.75, -5.54, -5.54, -5.0, -5.0, -4.4, -4.4, -4.01, -4.01, -4.01, -3.29, -3.29, -3.29, -3.53, -2.71, -2.71, -2.71, -2.94, -2.82, -2.82, -2.82, -2.71, -2.71, -2.59, -2.83, -2.57, -2.57, -2.69, -2.69, -2.69, -2.54, -2.54, -3.09, -3.09, -3.4, -4.22, -4.56, -3.4, -2.28, 0.0, -1.93, -2.28, -4.4, -7.27, -8.55, -8.55, -4.6, -2.19, 0.0, 0.0, 0.0, 0.0, 2.63, 6.2, 14.75, 14.03, 19.6, 16.87, 15.36, 12.58, 11.62, 0.0, -5.0, -6.2, -8.22, -10.4, -9.6, -9.2, -9.2, -9.2, -8.55, -8.55, -8.29, -8.08, -8.08, -8.08, -8.08, -8.44, -8.44, -8.15, -8.15, -8.15, -8.15, -8.15, -7.88, -7.59, -7.59, -7.59, -6.98, -6.98, -6.98, -6.98, -6.9, -6.9, -6.5, -6.5, -6.5, -6.04, -6.04, -5.54, -5.54, -5.0, -5.0, -4.4, -4.68, -4.68, -4.01, -4.01, -4.01, -4.01, -3.29, -3.53, -3.53, -2.71, -2.71, -2.71, -2.94, -2.82, -2.82, -2.71, -2.71, -2.59, -2.7, -2.57, -2.57, -2.69, -2.69, -2.69, -3.27, -3.27, -3.09, -3.09, -3.4, -4.22, -5.37, -4.22, 0.0, 1.49, 0.0, 0.0, -2.02, -4.6, -5.7, -7.27, -8.55, -4.8, -4.32, -4.48, -3.04, 0.0, 3.14, 8.31, 6.81, 3.73, 12.0, 13.28, 11.87, 11.12, 11.71, 8.22, -0.0, -3.53, -5.0, -7.9, -7.59, -7.27, -7.27, -7.27, -8.55, -8.55, -8.08, -8.08, -8.08, -8.08, -8.08, -8.08, -8.08, -8.08, -7.81, -7.81, -7.81, -7.55, -7.55, -7.27, -7.27, -7.27, -7.28, -6.98, -6.98, -6.63, -6.63, -6.5, -6.5, -6.5, -6.04, -6.04, -6.04, -5.54, -5.54, -5.0, -5.0, -4.68, -4.68, -4.68, -4.68, -4.01, -4.01, -4.01, -4.3, -3.53, -3.53, -3.53, -3.53, -3.82, -3.82, -2.82, -2.82, -2.82, -2.71, -2.71, -2.7, -2.7, -2.57, -2.69, -3.45, -3.45, -3.27, -3.27, -3.27, -3.09, -3.4, -4.42, -6.28, -5.69, 0.0, 1.58, 0.0, 0.0, 0.0, 0.0, 0.0, -3.25, -6.95, -6.95, -6.44, -4.32, -3.04, 0.0, 8.85, 9.48, 15.62, 6.63, 7.49, 9.92, 8.66, 7.59, 8.58, 6.2, -0.0, -0.0, -5.2, -7.9, -9.3, -8.18, -8.18, -8.18, -8.37, -8.37, -8.37, -8.08, -8.08, -8.08, -8.08, -8.08, -8.08, -8.08, -7.81, -7.55, -7.55, -7.55, -7.55, -7.55, -6.97, -6.97, -6.97, -7.28, -6.93, -6.63, -6.63, -6.24, -6.24, -5.8, -5.8, -6.04, -5.54, -5.54, -5.0, -5.0, -5.0, -4.68, -4.68, -4.68, -4.68, -4.68, -4.01, -4.01, -4.3, -4.3, -3.39, -3.39, -3.39, -3.67, -3.67, -3.67, -3.67, -3.67, -3.51, -3.51, -3.49, -3.49, -3.32, -3.63, -3.45, -3.45, -3.27, -3.6, -3.6, -3.91, -4.26, -4.68, -5.69, -6.44, -2.69, 0.0, 0.0, 0.0, 0.0, 0.0, 0.0, 0.0, -5.7, -6.17, -5.29, -4.15, 0.0, 2.93, 10.01, 12.27, 17.53, 14.86, 11.27, 9.69, 8.93, 6.45, 5.75, 5.0, -0.0, -3.68, -3.68, -8.22, -9.3, -8.55, -8.55, -8.55, -8.0, -8.0, -8.37, -8.08, -8.08, -8.08, -8.08, -8.08, -7.85, -7.55, -7.55, -7.55, -7.55, -7.55, -7.55, -7.27, -7.27, -6.97, -6.97, -6.64, -6.64, -6.93, -6.54, -6.24, -5.8, -5.8, -5.8, -5.32, -5.32, -5.32, -5.0, -5.0, -5.0, -4.5, -4.5, -4.5, -4.68, -4.68, -4.01, -4.3, -4.3, -4.13, -4.13, -3.39, -3.67, -3.67, -3.67, -3.67, -3.67, -3.67, -3.51, -3.65, -3.49, -3.49, -3.32, -3.63, -3.45, -3.45, -3.45, -3.6, -4.26, -3.91, -4.26, -4.68, -6.18, -7.28, -6.01, -2.06, 0.0, -1.69, -1.69, -2.1, -2.49, -2.39, -5.46, -6.95, -5.9, -3.25, 0.0, 2.28, 10.37, 11.88, 14.84, 18.96, 16.2, 10.92, 7.57, 7.54, 5.0, 5.0, -0.0, -2.82, -6.7, -8.22, -9.3, -7.9, -7.9, -7.9, -8.0, -8.0, -8.0, -8.0, -7.73, -7.73, -7.51, -7.51, -7.51, -7.23, -7.23, -7.23, -6.95, -7.27, -7.27, -7.27, -7.27, -6.64, -6.64, -6.64, -6.64, -6.27, -6.27, -6.11, -6.11, -6.11, -5.32, -5.32, -5.32, -4.8, -4.8, -4.8, -4.8, -4.5, -4.5, -4.5, -4.5, -4.68, -4.01, -4.3, -4.3, -4.13, -4.13, -4.13, -3.67, -3.67, -3.67, -3.67, -3.67, -3.67, -3.51, -3.65, -3.65, -3.49, -3.63, -3.63, -3.45, -3.45, -4.12, -4.12, -3.91, -3.91, -3.91, -5.1, -6.01, -7.28, -6.32, -4.0, -1.47, -1.69, -1.69, -2.02, -2.39, -4.2, -5.63, -7.51, -7.51, -5.63, -2.02, 5.2, 7.51, 8.05, 13.7, 17.2, 14.8, 8.76, 5.4, 6.16, 4.93, 4.32, -0.0, -3.68, -6.7, -6.7, -8.22, -8.22, -8.22, -8.22, -8.27, -8.27, -8.0, -8.0, -8.0, -7.51, -7.51, -7.51, -7.51, -7.25, -6.95, -6.95, -6.95, -6.95, -7.27, -6.95, -6.95, -6.95, -6.64, -6.27, -6.27, -6.27, -6.27, -5.85, -6.11, -5.62, -5.62, -5.62, -5.62, -4.8, -4.8, -4.8, -4.8, -4.5, -4.5, -4.5, -4.5, -4.5, -3.85, -4.13, -4.13, -4.13, -4.13, -4.44, -4.44, -4.44, -4.44, -3.67, -3.67, -3.67, -3.51, -3.65, -3.65, -3.49, -3.32, -4.34, -4.12, -4.12, -4.12, -4.12, -4.12, -4.12, -4.71, -5.1, -6.01, -7.07, -7.15, -6.32, -3.32, -1.26, 0.0, 0.0, -2.02, -4.2, -5.63, -5.63, -5.63, -4.4, 0.0, 2.82, 2.45, 6.0, 13.19, 16.22, 16.12, 8.76, 2.78, 2.0, 3.47, 2.2, 3.04, -0.0, -3.96, -7.19, -8.53, -8.53, -8.53, -8.53, -7.9, -7.9, -7.9, -7.64, -7.44, -7.8, -7.17, -6.92, -6.92, -6.92, -7.25, -6.95, -6.65, -6.65, -6.65, -6.65, -6.65, -6.65, -6.0, -6.27, -6.27, -6.27, -5.85, -5.85, -5.85, -5.39, -5.62, -5.62, -5.62, -5.09, -5.09, -5.09, -5.09, -4.5, -4.5, -4.5, -4.5, -4.5, -3.85, -4.13, -4.13, -4.13, -4.13, -4.13, -4.44, -4.44, -4.44, -4.44, -4.44, -4.44, -4.25, -4.4, -4.4, -4.2, -4.2, -4.0, -4.12, -4.12, -4.12, -4.12, -4.12, -4.71, -4.71, -5.1, -6.01, -7.07, -7.67, -7.15, -3.32, -1.47, 0.0, 0.0, 0.0, -2.6, -1.84, -1.93, -1.93, -2.39, 0.0, 0.0, 0.0, 3.14, 11.44, 15.65, 16.81, 8.76, -0.0, -0.0, -0.0, -0.0, -0.0, -0.0, -3.82, -8.85, -8.85, -10.8, -10.8, -10.8, -7.72, -7.72, -7.72, -7.72, -7.44, -7.44, -7.21, -6.92, -6.92, -6.92, -6.64, -6.95, -6.65, -6.65, -6.65, -6.65, -6.65, -6.3, -6.0, -6.0, -6.0, -5.85, -5.85, -5.85, -5.39, -5.39, -5.39, -5.62, -5.62, -5.09, -5.09, -5.09, -5.09, -4.5, -4.5, -4.5, -4.5, -3.85, -3.85, -4.13, -4.13, -4.13, -4.13, -4.13, -4.13, -4.44, -4.44, -4.44, -4.44, -4.25, -4.25, -4.4, -4.4, -4.2, -4.2, -4.0, -4.0, -4.12, -4.71, -4.71, -4.71, -4.71, -4.71, -4.71, -6.01, -6.91, -8.0, -7.15, -5.36, -3.32, -1.54, 0.0, 0.0, 0.0, -1.84, -1.93, -1.93, -2.39, -2.49, -2.6, -2.82, 3.14, 9.8, 14.47, 18.78, 17.7, 3.97, -0.0, -0.0, -0.0, -2.28, -3.25, -7.19, -10.41, -11.87, -11.2, -11.2, -11.2, -7.72, -7.72, -7.72, -7.72, -7.44, -7.44, -7.21, -6.92, -6.92, -6.92, -6.64, -6.95, -6.65, -6.65, -6.65, -6.65, -6.65, -6.3, -6.0, -6.0, -6.0, -5.85, -5.85, -5.85, -5.39, -5.39, -5.39, -5.62, -5.62, -5.09, -5.09, -5.09, -5.09, -4.5, -4.5, -4.5, -4.5, -3.85, -3.85, -4.13, -4.13, -4.13, -4.13, -4.13, -4.13, -4.44, -4.44, -4.44, -4.44, -4.25, -4.25, -4.4, -4.4, -4.2, -4.2, -4.0, -4.0, -4.12, -4.71, -4.71, -4.71, -4.71, -4.71, -4.71, -6.01, -6.91, -8.0, -7.15, -5.36, -3.32, -1.54, 0.0, 0.0, 0.0, -1.84, -1.93, -1.93, -2.39, -2.49, -2.6, -2.82, 0.0, 9.48, 12.79, 15.78, 20.12, 16.75, 7.8, -0.0, -0.0, -2.5, -6.4, -9.8, -11.16, -11.87, -12.07, -12.07, -12.07]}]